GFSFLT1_sfc_dewp_000.txt.gz
Dewpoint
39 41 44 48 49 50 53 56 53 52 54 54 52 51 52 52 52 51 52 51 52 53 52 54 56 53 52 53 54 52 51 50
46 49 51 50 52 49 53 55 55 52 52 50 49 49 49 50 48 49 48 50 50 51 50 50 50 49 50 50 49 48 48 50
42 46 50 54 52 53 53 51 49 47 46 49 49 49 48 48 49 49 49 49 48 44 48 47 48 47 48 49 50 47 45 46
41 45 49 51 50 50 46 45 46 48 48 45 46 46 46 45 45 46 46 46 45 46 46 47 48 46 45 46 46 45 44 43
38 43 46 48 49 49 46 46 44 45 46 46 45 44 44 47 49 47 47 46 46 43 44 46 46 46 45 46 42 46 44 42
40 42 44 45 49 50 49 46 44 44 45 45 46 48 48 47 47 46 45 45 44 43 42 43 45 44 44 45 44 44 45 43
39 42 44 45 49 49 48 45 42 44 45 47 46 45 44 43 43 43 41 41 41 42 42 43 44 44 43 43 45 43 42 42
40 40 41 43 46 47 46 45 43 44 44 43 43 44 44 43 42 40 39 39 40 39 42 42 42 42 42 42 43 43 41 40
41 41 43 43 45 46 47 45 43 43 45 43 45 44 42 41 41 39 39 40 40 40 41 41 41 40 40 40 40 41 40 41
39 41 43 43 44 45 46 45 44 44 45 46 43 42 43 41 39 40 40 40 37 40 41 39 39 40 40 39 39 38 38 39
40 39 43 43 44 46 48 46 43 43 41 41 39 40 41 40 40 39 40 40 38 38 39 39 39 39 38 37 37 38 37 38
39 39 40 41 43 43 45 43 42 41 40 39 41 40 40 39 39 39 39 38 37 36 37 36 36 36 38 39 37 36 34 33
38 40 40 40 41 41 41 43 42 41 40 40 38 39 37 37 38 36 36 36 37 35 35 34 35 35 37 37 36 36 34 33
38 39 39 38 38 39 39 41 41 41 39 38 36 36 35 35 34 35 35 35 34 32 29 28 26 27 26 27 27 28 27 25
39 39 38 36 36 36 36 36 41 41 39 37 37 36 34 32 33 32 32 31 29 27 27 27 28 25 23 26 25 26 25 23
38 38 37 34 34 33 32 33 36 39 39 37 38 35 33 32 33 31 31 30 26 26 25 26 27 24 23 26 24 23 23 22
35 35 32 31 30 27 26 28 30 37 34 36 35 35 34 33 32 32 29 27 25 25 26 26 26 20 26 25 25 22 21 21
34 32 29 27 24 24 23 24 26 32 32 33 35 38 35 35 31 28 25 25 26 27 27 26 26 26 25 25 24 21 20 19
31 27 26 25 24 22 23 21 23 25 26 30 35 36 34 32 30 29 26 25 26 26 27 26 25 23 29 27 24 22 20 20

GFSFLT1_sfc_dewp_003.txt.gz
Dewpoint
46 46 45 43 49 57 57 58 57 50 49 47 49 46 47 46 45 44 44 48 48 48 47 48 48 48 48 48 48 48 48 47
48 48 48 49 52 50 51 52 47 47 48 47 46 43 43 43 43 46 45 44 44 44 45 47 46 46 45 45 47 46 45 47
45 46 45 48 45 44 46 47 46 46 47 46 45 43 43 43 43 43 45 46 44 43 45 46 45 44 43 43 43 44 43 45
44 44 45 44 43 42 41 41 42 44 44 41 41 41 42 43 45 45 45 47 44 43 43 44 43 44 43 42 44 41 42 43
43 44 44 44 44 42 41 41 39 40 42 41 41 43 44 46 45 44 45 43 42 42 41 41 43 43 42 43 43 43 43 42
42 43 44 44 43 42 41 40 40 40 39 39 43 42 43 43 43 41 39 40 40 40 41 40 42 43 41 42 43 42 42 42
41 43 43 43 42 41 39 37 38 39 39 39 41 39 39 41 39 37 37 38 39 38 39 40 41 40 40 41 42 41 40 41
39 41 41 41 41 41 40 41 39 39 40 39 38 39 38 37 36 35 35 37 37 37 39 39 39 39 39 39 39 39 39 38
38 39 39 40 40 39 41 40 40 40 39 40 39 39 39 38 36 35 36 37 37 39 38 38 38 38 38 38 38 38 39 38
37 39 40 41 41 43 43 42 41 37 38 38 39 40 40 39 36 35 37 39 37 39 39 38 38 38 38 37 36 37 37 37
39 39 41 41 41 43 42 41 40 38 37 41 42 41 41 41 38 38 37 37 37 37 36 36 35 35 36 37 37 36 36 35
39 39 39 41 40 40 41 41 40 38 38 39 39 38 37 38 37 35 35 35 35 35 34 34 34 34 35 36 36 36 35 34
38 39 38 37 37 36 36 38 39 38 38 39 37 37 35 36 34 33 33 33 33 33 32 29 29 28 29 32 34 35 33 30
39 39 37 35 34 35 35 35 38 38 38 38 37 37 34 31 30 31 30 30 30 28 27 27 26 27 26 26 27 27 26 25
38 37 36 34 32 32 30 30 31 36 40 39 40 41 36 30 32 31 30 28 26 24 23 25 27 26 26 25 24 24 23 23
36 35 33 31 27 24 23 26 28 27 33 36 39 38 36 37 36 33 32 29 25 22 22 24 25 24 23 24 22 22 21 21
34 34 30 25 22 22 24 24 24 25 24 25 30 39 39 38 36 35 32 26 21 21 23 25 24 22 26 25 23 20 20 20
34 32 25 24 23 24 23 23 25 25 25 27 37 37 37 38 38 35 25 23 21 22 24 25 24 23 25 24 24 21 20 19
33 26 23 22 21 21 22 21 23 25 27 31 33 35 36 38 37 29 25 22 20 22 24 25 25 24 28 27 24 22 22 22

GFSFLT1_sfc_dewp_006.txt.gz
Dewpoint
47 49 53 52 58 58 57 58 57 51 47 49 49 51 47 45 43 44 46 46 45 44 45 46 46 45 44 44 43 43 44 45
46 48 47 48 47 48 49 49 50 45 48 49 49 43 43 43 43 46 46 46 46 45 45 46 45 44 43 42 43 43 42 43
43 45 46 46 44 48 49 46 46 46 49 48 46 44 43 44 48 45 46 45 44 42 43 42 44 43 42 42 43 42 42 42
43 44 43 42 41 42 41 41 42 45 44 43 43 43 44 45 44 43 42 41 42 41 41 41 42 42 41 41 42 42 41 42
43 43 42 42 41 40 39 39 39 40 41 41 43 43 42 44 44 41 38 39 40 39 40 41 42 42 40 41 43 42 41 40
43 43 42 42 41 41 40 40 39 39 39 40 43 41 41 42 40 37 36 38 39 38 40 41 40 41 40 40 41 40 41 40
43 43 42 41 41 40 38 37 38 40 39 39 42 39 39 38 35 34 35 37 37 39 39 38 38 39 39 39 38 39 38 38
42 42 41 41 43 40 40 40 39 39 40 39 39 38 36 34 34 35 34 37 37 38 38 38 38 38 38 37 37 37 38 37
41 41 40 40 41 42 42 39 37 39 39 38 39 38 39 37 37 35 38 39 38 39 38 37 37 37 37 36 36 36 36 36
39 40 40 41 41 41 40 38 36 37 38 39 39 40 40 40 41 39 39 38 38 37 37 35 35 35 35 36 35 34 34 34
39 39 40 40 41 41 41 41 37 37 38 40 41 40 40 41 38 37 36 35 36 35 33 33 33 34 34 35 34 34 34 34
39 39 39 38 36 36 37 38 39 38 38 38 38 37 37 38 36 36 35 35 36 34 32 31 29 29 30 31 32 33 34 32
38 37 36 35 34 34 32 35 37 37 38 39 39 38 36 36 35 34 34 33 34 32 32 28 27 26 26 27 29 28 26 25
37 36 34 33 31 28 26 27 28 30 31 36 39 39 39 34 33 33 31 30 30 29 27 25 25 26 25 26 26 25 23 23
35 34 33 29 25 23 23 25 27 27 26 29 30 32 37 34 32 34 36 37 37 30 24 25 27 25 26 24 23 22 22 21
34 34 30 23 23 23 23 25 26 27 27 27 32 38 36 35 36 37 37 38 36 27 24 24 25 25 23 23 22 21 21 21
34 32 26 23 22 21 22 23 25 27 26 31 36 37 37 37 36 36 37 37 26 23 23 25 25 22 27 26 23 21 20 19
32 31 23 22 21 21 20 21 24 26 27 32 33 37 36 37 37 37 37 30 27 23 23 24 24 24 28 27 26 22 21 20
31 22 20 20 19 19 21 21 23 25 31 31 32 33 34 34 35 34 34 28 25 22 24 25 24 24 28 29 27 25 23 23

GFSFLT1_sfc_dewp_009.txt.gz
Dewpoint
50 54 56 56 56 57 58 57 56 54 52 48 50 51 50 49 46 45 45 46 46 45 45 45 46 43 43 42 41 42 42 43
46 47 48 48 50 52 52 53 54 51 49 50 50 45 45 46 46 48 46 44 43 42 42 43 43 41 41 42 42 41 40 42
43 44 45 47 48 50 49 48 48 49 50 49 48 47 45 48 46 43 42 42 41 39 40 41 41 41 40 40 41 41 41 42
43 42 40 41 42 43 41 42 43 46 48 46 43 43 45 43 42 40 39 40 39 40 40 41 41 41 40 41 41 41 40 41
41 40 39 39 39 39 38 39 39 40 41 40 40 41 41 43 41 37 36 39 38 40 40 41 41 41 40 41 41 39 39 38
41 41 40 40 39 39 39 39 39 39 39 40 42 41 40 41 37 35 35 38 39 40 39 39 40 40 38 38 38 37 37 37
42 42 41 41 41 39 38 38 39 40 40 40 41 38 38 34 34 35 35 37 39 39 39 39 39 38 37 37 36 35 35 36
43 41 41 41 41 41 41 40 39 39 39 38 38 35 34 34 36 38 36 38 40 38 38 38 38 37 36 36 35 34 34 33
40 40 41 40 39 36 35 36 36 37 37 37 37 36 38 39 39 39 39 39 39 38 37 36 36 36 35 35 34 34 33 32
39 40 40 40 40 40 38 36 36 37 38 39 39 39 39 40 40 40 38 38 38 38 37 37 38 35 34 34 33 32 32 32
39 39 38 37 37 39 39 39 37 37 38 39 39 40 39 39 40 38 36 35 37 36 38 38 33 32 32 33 32 32 33 32
38 38 36 35 34 34 35 36 35 33 34 36 38 38 38 38 37 36 35 34 36 37 36 32 30 29 29 29 28 30 32 30
36 35 34 33 30 27 28 28 27 29 31 33 34 35 35 36 36 34 35 35 33 33 35 35 30 27 27 27 27 29 26 24
36 34 32 28 25 25 24 25 24 25 25 27 29 32 35 37 36 32 32 33 35 36 36 31 27 26 26 26 27 25 22 22
34 33 29 25 23 23 23 24 25 25 25 27 32 35 36 32 31 32 33 35 36 36 36 29 27 26 25 25 23 22 22 22
33 32 27 22 22 22 22 23 24 25 25 28 33 36 36 35 34 35 35 36 36 36 30 25 26 25 24 22 22 22 22 21
33 32 26 23 21 20 21 22 23 26 25 30 32 33 35 36 36 36 37 37 37 25 30 26 25 23 28 27 25 22 21 21
32 32 23 23 21 21 20 21 23 25 25 31 32 33 34 34 35 36 35 34 30 29 23 23 23 23 28 28 30 25 25 23
32 28 22 22 20 20 21 21 23 24 26 31 31 32 32 32 33 34 33 34 32 23 24 25 24 26 29 29 29 25 24 23

GFSFLT1_sfc_dewp_012.txt.gz
Dewpoint
50 54 56 56 58 58 57 57 57 56 54 51 52 51 50 50 48 46 46 45 45 45 43 43 42 41 41 41 40 41 41 42
49 50 52 52 53 55 54 54 53 52 49 51 48 48 49 48 45 43 43 42 41 40 41 41 41 40 40 41 41 40 40 42
44 46 48 49 50 53 53 50 48 49 49 49 50 47 46 45 41 40 41 40 39 39 41 41 40 40 40 41 40 40 40 42
42 42 42 47 47 45 44 44 44 46 48 45 43 44 45 42 41 37 38 39 39 40 41 41 40 39 40 40 40 39 38 39
39 38 37 38 38 39 39 40 39 40 40 40 39 40 41 42 38 35 37 39 39 39 39 40 39 40 41 40 39 38 39 36
39 38 38 39 39 39 39 39 40 39 39 41 42 40 41 37 35 35 35 37 38 38 38 38 39 39 37 37 36 35 36 35
40 41 41 40 40 39 39 40 39 40 40 40 39 39 35 34 36 37 36 37 38 38 39 38 38 37 37 36 35 34 34 34
41 41 41 41 40 40 39 37 37 37 37 36 36 35 34 36 37 38 37 39 39 39 37 37 37 36 37 36 33 33 32 31
41 40 38 37 36 35 36 36 36 37 37 37 37 36 37 38 39 39 39 39 39 37 37 35 35 36 37 37 35 33 33 31
40 39 39 39 39 38 36 36 37 37 38 38 39 39 39 39 40 40 39 38 38 37 36 37 37 38 36 35 33 31 32 32
39 37 37 37 37 38 39 37 33 31 31 35 35 34 35 36 37 37 37 37 36 37 37 37 37 36 34 34 33 31 31 31
36 35 35 34 33 33 31 28 26 27 29 31 31 32 33 35 36 36 35 34 35 36 36 34 31 32 31 29 28 28 28 30
35 34 33 27 26 26 26 25 25 27 27 29 30 32 33 34 35 35 34 34 34 33 34 35 35 32 28 26 26 26 28 25
35 33 31 26 24 25 25 25 23 24 24 25 29 32 33 33 32 32 32 32 32 35 36 36 33 29 25 26 25 26 23 22
34 32 28 24 24 25 24 23 24 24 23 25 29 31 34 34 33 32 32 33 35 37 36 35 29 25 25 25 24 22 22 23
33 32 27 23 24 24 23 23 24 25 24 25 29 32 33 34 35 35 35 35 36 37 33 26 25 25 24 23 22 22 22 22
33 32 28 24 23 22 21 22 23 25 25 25 30 32 32 33 34 34 34 35 34 34 28 27 25 23 28 28 27 26 24 24
32 32 30 25 23 22 20 21 23 24 25 26 30 32 32 32 32 33 33 33 32 31 27 23 23 24 29 29 30 26 24 23
31 32 30 23 22 20 21 21 22 23 25 26 30 31 31 31 32 32 31 32 31 29 24 24 25 28 28 28 27 22 21 21

GFSFLT1_sfc_dewp_015.txt.gz
Dewpoint
53 56 58 59 60 60 60 59 57 56 56 53 53 53 51 50 48 45 45 44 46 44 44 45 43 42 42 41 41 39 40 39
53 56 58 58 58 58 58 58 55 53 49 52 52 52 49 45 43 44 43 43 43 44 43 43 43 42 43 42 40 38 35 40
51 53 55 57 57 56 56 55 51 50 52 52 52 50 47 42 41 42 41 43 42 41 44 42 43 41 43 43 40 36 37 41
50 51 54 56 56 53 49 49 49 49 49 47 46 48 46 43 40 38 40 41 41 42 43 44 43 42 41 42 41 40 35 37
46 45 46 46 46 46 46 45 43 43 44 44 45 43 43 42 39 39 39 41 41 40 41 43 43 42 42 41 39 38 35 30
39 39 40 40 42 44 44 44 43 43 44 46 44 44 41 39 40 41 41 42 41 40 41 42 42 41 41 40 37 34 32 28
40 41 41 41 42 44 44 41 41 42 43 44 44 42 40 39 41 41 41 41 42 42 41 42 41 40 38 37 37 33 33 31
41 41 41 42 43 42 40 39 38 40 40 40 40 40 40 41 41 41 42 41 41 42 42 41 38 37 37 36 33 32 32 29
42 42 40 39 40 39 39 39 39 40 41 41 42 42 40 37 37 36 37 38 39 42 41 39 38 37 35 35 34 34 34 33
41 40 39 39 38 40 40 37 34 34 36 35 35 34 34 34 36 37 36 39 39 41 40 38 40 38 36 36 35 35 34 33
40 39 40 40 40 41 38 32 28 30 30 32 30 32 33 33 34 33 34 37 39 40 39 39 38 37 35 35 33 33 33 32
39 37 37 37 39 34 30 29 26 27 28 30 32 32 33 33 32 33 34 37 38 38 38 38 36 34 35 35 33 31 30 29
36 35 34 33 30 27 29 27 26 27 28 29 30 31 32 33 33 34 36 35 36 36 36 35 35 37 36 33 29 27 28 28
35 34 28 25 26 27 26 26 25 25 25 25 28 30 32 33 33 34 35 35 35 35 34 36 36 36 33 28 27 27 27 26
34 33 29 25 26 26 27 30 27 25 24 24 28 31 33 34 34 34 35 36 37 37 37 37 35 29 26 26 26 25 24 24
34 33 29 25 26 28 30 27 26 26 26 25 28 31 34 34 34 34 35 36 36 38 37 32 31 27 23 26 24 24 25 25
34 33 30 26 25 29 27 25 25 26 26 27 28 30 32 34 34 34 34 34 34 35 32 32 30 23 30 30 29 26 25 21
34 34 33 28 28 28 25 24 24 25 26 26 28 30 31 33 32 31 31 32 33 34 34 28 26 28 30 29 28 21 19 18
34 34 34 33 27 25 25 21 22 24 25 26 27 28 30 32 31 30 30 31 33 34 30 26 27 25 27 25 23 21 18 17

GFSFLT1_sfc_dewp_021.txt.gz
Dewpoint
49 50 48 47 52 58 61 61 61 62 61 59 57 57 56 53 50 49 48 48 48 48 47 49 47 44 45 46 47 45 43 40
51 53 53 53 57 59 61 61 61 60 58 57 56 52 51 49 47 47 47 46 45 46 44 45 46 45 46 46 44 44 37 37
51 54 55 56 57 59 60 59 60 58 55 53 52 51 48 46 46 47 45 45 44 43 46 45 45 43 43 42 42 40 37 37
51 54 56 57 58 58 58 57 57 54 53 51 50 49 47 44 44 43 44 45 44 44 44 44 43 41 37 40 40 40 35 35
51 54 56 57 58 58 55 54 52 52 49 46 46 44 44 45 44 44 44 44 44 42 41 42 42 40 40 39 35 39 37 33
51 53 53 53 53 52 52 50 46 46 47 48 46 46 44 43 43 40 39 37 34 32 33 36 41 40 40 41 40 39 36 36
46 47 48 48 49 49 48 45 44 46 46 47 46 43 40 37 35 31 29 28 28 30 29 34 36 39 40 39 40 39 39 37
42 42 42 44 46 47 46 44 44 45 43 40 40 39 34 32 29 27 28 27 27 30 33 35 35 36 38 38 39 39 40 34
40 40 41 43 45 45 44 43 42 40 39 36 33 32 32 29 29 30 28 28 28 31 32 35 37 37 37 41 38 41 39 36
39 40 42 44 45 45 45 42 38 35 35 37 35 35 31 32 32 32 29 30 26 30 33 33 35 36 38 41 41 40 36 35
40 41 44 44 44 46 45 40 35 36 36 35 35 34 31 33 33 31 30 30 30 31 31 31 32 34 40 39 37 36 36 37
41 42 43 43 44 43 40 35 36 36 33 34 37 31 31 32 32 31 30 31 30 29 30 31 31 31 31 33 34 36 35 35
41 42 42 42 43 40 36 36 37 33 32 30 31 31 29 30 31 30 30 30 30 29 29 30 29 29 31 33 34 35 34 30
41 42 42 42 42 38 35 37 35 32 30 28 28 29 29 30 30 30 30 29 29 29 29 30 29 32 34 31 28 28 28 29
42 42 41 41 41 37 35 36 37 35 30 24 26 28 30 31 31 30 31 30 30 29 30 29 30 29 29 30 29 29 29 28
41 42 40 40 39 36 34 36 39 34 28 25 27 28 30 31 30 30 30 31 29 28 29 29 29 32 30 31 30 30 28 28
40 40 39 38 36 34 32 38 36 33 28 28 28 28 29 30 29 30 30 29 28 29 28 28 30 31 31 29 26 25 25 25
39 39 39 38 35 33 32 36 33 30 28 26 26 27 28 27 26 24 26 28 30 29 28 29 30 31 31 27 24 23 24 24
39 39 39 39 37 32 36 31 30 28 26 26 26 26 22 22 23 24 26 29 29 29 28 28 29 28 29 24 23 24 25 23

GFSFLT1_sfc_dewp_024.txt.gz
Dewpoint
47 47 47 49 57 60 61 62 62 61 61 61 59 59 59 57 56 53 53 51 52 52 52 50 49 49 49 49 48 47 47 42
49 52 53 52 58 61 62 62 62 61 61 59 58 57 55 55 50 52 50 49 48 48 50 50 49 48 48 46 44 43 42 42
51 52 55 57 59 61 62 61 62 60 60 58 56 54 54 50 50 50 49 49 47 47 48 47 48 46 44 44 43 42 41 41
50 53 56 58 60 61 60 60 60 60 58 54 52 50 50 48 49 48 48 48 47 46 46 46 45 44 43 43 42 41 39 38
50 53 55 60 60 60 59 59 58 55 55 53 51 48 47 49 49 49 47 47 45 41 41 43 44 45 43 43 39 41 39 36
50 53 56 57 59 59 58 56 53 52 51 52 51 49 49 48 47 43 41 41 38 36 37 40 41 41 43 43 43 40 39 37
50 53 54 54 56 55 55 49 47 50 50 51 50 47 44 41 39 38 36 36 36 37 37 39 40 41 41 42 41 40 40 40
50 50 50 50 51 51 50 46 46 49 48 46 45 41 41 40 37 36 34 34 34 36 36 38 39 40 41 41 41 39 40 40
47 47 47 48 49 48 47 45 45 44 44 41 40 39 38 38 38 34 35 34 34 35 36 37 38 39 40 40 40 40 40 40
43 43 45 46 47 48 48 45 43 41 40 41 41 40 39 39 37 36 36 35 30 35 36 36 36 37 39 37 41 41 41 40
41 41 45 45 47 48 50 47 41 39 40 42 38 38 40 39 37 35 33 34 34 35 35 35 35 35 36 38 38 37 37 38
41 41 44 45 47 46 47 43 37 38 40 40 40 39 39 37 37 35 33 34 34 34 34 33 33 34 34 35 35 35 36 36
41 42 44 45 45 45 45 41 37 40 38 36 37 39 36 37 36 34 34 33 34 33 33 32 33 33 34 35 35 34 34 33
41 42 43 43 44 45 42 39 39 38 35 34 34 36 35 36 34 35 34 34 33 33 32 33 33 33 34 34 33 32 31 31
41 42 43 43 44 43 41 39 41 37 36 35 32 36 36 34 35 35 34 34 33 33 33 33 34 32 31 32 31 30 31 31
39 42 43 43 44 43 40 39 40 40 38 33 34 34 33 34 36 35 35 35 33 33 32 32 33 32 30 32 30 30 30 29
37 41 44 43 42 43 40 38 39 42 38 34 33 34 32 35 35 34 35 34 32 32 32 32 33 30 31 29 26 25 27 26
36 42 43 44 42 42 39 37 41 40 35 33 33 33 32 34 30 29 29 31 33 33 33 32 31 31 31 28 25 23 25 26
38 40 42 43 42 40 38 35 38 36 32 30 32 32 29 28 29 28 30 32 32 33 32 32 31 30 31 27 25 22 26 25

GFSFLT1_sfc_dewp_027.txt.gz
Dewpoint
45 46 51 55 56 58 60 60 59 59 59 59 58 58 57 57 55 53 50 49 48 50 48 47 47 47 46 45 44 43 44 40
45 45 49 55 58 59 60 59 60 59 58 57 57 56 55 52 49 49 48 46 46 47 47 47 46 45 43 43 42 40 39 41
49 50 53 58 58 61 61 60 60 59 59 59 57 55 52 48 48 46 46 46 45 46 45 45 43 42 41 41 40 39 40 38
50 51 54 60 60 61 61 60 60 59 59 59 52 49 47 46 46 45 46 46 45 44 44 42 41 41 40 40 40 39 37 36
50 52 54 60 60 61 60 61 59 59 59 50 46 45 45 46 47 46 45 46 40 36 38 37 38 41 40 42 40 39 38 35
51 53 58 59 60 60 59 59 59 56 52 49 48 46 46 46 44 39 33 34 35 34 37 36 36 38 38 39 40 40 38 36
51 56 57 58 59 58 57 50 47 49 48 48 46 45 38 35 34 33 32 35 35 36 34 35 36 37 38 39 40 38 39 39
53 55 54 53 51 49 46 46 47 45 42 39 39 36 34 33 33 33 33 32 32 32 32 35 35 37 38 39 38 38 38 37
51 50 50 50 48 45 45 46 44 42 42 36 35 35 36 36 34 34 34 33 32 32 33 33 34 35 36 38 39 38 38 38
48 48 48 47 46 46 45 45 42 42 37 36 36 35 36 37 34 34 34 33 30 32 33 32 33 33 33 35 37 39 39 39
45 46 46 46 46 47 46 44 41 38 38 38 36 35 37 36 35 35 32 32 31 32 32 32 32 33 33 34 36 35 35 36
43 44 45 46 46 46 46 42 38 37 39 38 36 36 37 37 36 34 33 33 31 31 31 31 31 32 33 33 34 33 34 34
41 42 44 45 45 45 46 38 36 38 38 37 36 37 37 36 37 34 34 32 31 31 31 32 33 33 33 33 33 32 31 31
40 41 43 45 45 45 44 37 37 38 34 34 34 37 36 35 34 34 34 32 31 31 31 32 33 33 32 33 33 31 30 31
40 41 43 44 44 45 42 38 39 36 34 34 35 36 35 35 34 33 32 33 32 30 31 32 33 33 33 32 32 31 32 31
41 41 42 43 44 44 42 42 39 36 36 35 35 36 37 34 35 34 34 33 31 32 33 32 32 33 31 31 28 28 27 27
35 43 44 43 44 44 43 40 39 38 38 38 36 35 34 35 34 32 32 31 32 33 31 31 32 30 32 30 27 25 25 25
37 41 44 44 45 44 40 39 41 41 40 38 36 35 33 32 29 28 28 28 31 32 32 31 31 31 32 29 27 23 23 25
35 37 41 44 45 42 39 39 40 38 34 34 31 31 30 29 28 28 30 32 30 30 31 31 32 30 32 30 26 21 24 25

GFSFLT1_sfc_dewp_030.txt.gz
Dewpoint
56 58 59 59 58 59 60 59 58 58 57 57 58 57 57 56 55 54 50 49 51 49 47 47 47 45 42 42 40 40 41 39
52 58 58 56 57 58 60 59 58 57 57 56 56 56 55 54 52 49 47 47 47 47 47 45 44 42 40 41 40 39 38 39
48 54 55 56 57 59 59 59 58 56 57 57 57 56 52 49 48 47 46 46 46 45 45 43 42 41 40 40 39 38 40 37
45 50 54 56 56 59 59 59 58 57 56 58 53 49 47 46 45 45 45 45 45 44 44 42 42 42 41 40 40 39 36 36
49 51 55 56 59 60 60 60 59 58 58 56 52 49 45 45 45 45 45 45 39 38 37 37 37 38 37 39 41 39 37 35
49 55 58 58 60 60 60 60 59 59 58 54 50 47 46 47 46 43 35 35 36 37 36 35 37 38 37 37 38 39 38 36
51 57 59 60 60 60 60 59 58 56 58 50 48 46 44 42 37 33 34 36 37 34 35 35 35 36 37 38 38 38 38 38
54 57 58 59 59 59 59 53 47 47 48 47 45 40 38 34 34 34 34 35 34 32 34 34 34 35 35 38 38 37 37 37
54 55 57 57 57 55 51 47 42 41 40 38 36 34 35 35 35 35 36 34 34 34 34 33 33 33 33 33 36 37 38 37
52 52 52 50 48 47 47 44 41 39 39 36 38 38 37 36 35 35 36 34 33 34 33 32 34 33 33 33 35 36 38 37
50 50 49 48 47 47 46 43 41 39 39 39 36 36 37 36 37 35 34 34 33 33 32 32 31 31 32 33 34 34 34 35
49 49 48 47 46 45 45 42 38 39 36 36 36 36 37 37 37 35 34 34 33 32 32 31 30 31 32 32 33 33 33 34
48 48 47 46 46 46 44 41 37 35 37 37 37 37 39 37 36 35 34 33 33 32 32 31 31 32 32 33 33 33 31 30
45 46 46 46 46 45 44 41 38 38 40 36 36 36 37 35 36 35 34 32 32 32 31 30 31 32 33 33 34 32 30 31
41 43 44 45 45 45 44 40 40 40 37 34 35 36 37 35 36 34 34 33 33 32 32 32 34 32 32 32 31 31 31 31
41 41 42 44 45 45 41 40 42 39 37 35 35 37 37 36 35 34 34 34 32 32 32 33 34 33 32 32 30 29 27 26
38 41 43 44 45 45 44 40 40 39 36 36 37 38 37 37 35 34 30 29 29 31 31 33 32 32 33 34 30 25 25 25
42 43 43 44 45 44 43 42 39 37 38 39 37 35 32 32 31 29 30 31 32 31 31 32 32 33 33 32 30 24 24 24
36 39 44 44 45 43 40 41 42 39 34 33 33 33 31 32 33 34 35 34 32 31 31 32 32 32 33 32 29 22 23 25

GFSFLT1_sfc_dewp_033.txt.gz
Dewpoint
56 56 57 58 60 60 60 59 58 57 56 57 57 56 56 56 56 55 51 52 50 48 47 47 45 42 41 41 38 40 39 39
56 57 57 60 59 59 59 58 57 56 56 56 55 55 55 54 53 49 48 50 48 46 45 44 43 40 40 40 39 38 38 37
56 57 58 59 58 59 59 58 57 56 56 56 56 55 53 52 50 47 47 47 46 45 44 43 41 40 39 39 38 38 39 36
54 57 58 58 57 58 58 58 57 56 56 56 53 49 48 46 45 45 45 46 45 44 43 42 41 41 39 39 39 38 36 37
50 55 57 56 56 58 59 58 58 56 56 56 53 52 49 45 45 45 45 44 41 38 37 37 37 38 37 38 39 38 37 35
47 52 55 56 56 58 59 59 59 57 56 56 54 51 46 46 45 44 35 37 37 36 37 37 37 37 37 37 38 38 38 36
49 50 54 55 58 58 58 59 58 58 57 55 54 49 46 44 42 36 35 37 36 36 35 36 37 37 36 38 38 37 38 37
53 56 56 57 58 58 58 58 58 58 58 53 50 47 45 43 39 35 36 35 34 35 35 36 36 35 35 37 37 37 36 36
53 56 57 57 58 58 59 58 52 51 53 49 46 45 47 47 44 38 36 35 35 35 35 35 34 34 33 32 34 35 37 37
54 57 58 58 58 58 57 51 47 45 45 42 40 42 42 42 41 36 35 36 34 35 35 34 34 33 32 33 34 34 37 37
53 55 55 55 54 51 50 46 43 41 40 40 39 38 37 36 35 35 34 35 36 35 34 33 33 32 32 32 33 34 34 34
52 53 53 52 49 48 46 42 38 38 39 38 38 37 38 35 33 33 33 35 34 34 34 33 32 31 32 33 33 33 33 32
51 51 50 48 48 47 45 42 39 39 40 41 39 37 36 35 34 34 35 33 34 34 33 32 31 31 31 32 31 32 32 30
49 49 48 47 46 46 46 44 43 41 41 40 36 37 36 35 35 35 34 33 33 32 32 31 31 32 32 32 32 33 31 30
47 47 48 48 47 46 46 45 42 41 40 38 38 37 37 35 35 35 35 34 33 32 32 33 33 33 32 32 32 31 31 31
43 45 46 47 48 47 46 44 44 44 40 38 39 37 38 37 37 36 36 35 33 33 33 33 34 33 31 33 31 30 29 28
42 42 44 46 46 46 44 43 43 41 40 40 39 39 38 37 35 34 33 33 33 33 34 34 33 31 33 35 32 29 27 25
40 42 42 43 45 45 42 42 41 40 39 40 37 34 32 33 33 34 35 36 37 35 33 31 31 32 34 35 33 27 25 24
34 35 41 44 44 42 41 40 39 37 35 33 33 34 34 35 35 37 38 37 36 35 32 31 31 31 33 34 33 24 24 24

GFSFLT1_sfc_dewp_036.txt.gz
Dewpoint
54 54 55 56 58 60 59 59 58 57 57 57 57 56 56 57 57 57 55 54 50 48 48 46 44 42 41 39 39 40 39 39
53 55 56 57 59 59 59 57 57 57 56 55 54 54 55 54 54 51 52 50 48 47 46 44 43 41 40 39 39 37 39 37
52 56 56 57 59 59 58 58 57 57 57 55 55 54 53 53 50 47 49 47 46 45 44 42 41 40 40 39 39 38 39 37
53 56 56 57 59 59 59 58 57 56 56 55 52 50 49 48 46 45 46 46 45 44 43 42 41 40 38 39 39 38 36 37
54 55 56 57 58 58 59 58 57 56 56 55 53 53 50 48 46 45 45 45 42 40 38 37 37 38 37 38 38 39 38 36
51 54 56 58 57 57 58 58 57 57 56 56 54 52 52 50 45 44 39 38 37 37 37 37 37 38 37 39 39 39 38 36
48 51 55 57 56 57 57 58 58 57 56 55 54 51 48 48 45 39 37 37 36 36 35 36 36 36 37 39 38 37 37 37
46 48 53 55 55 56 57 58 58 58 57 55 53 51 50 48 44 39 37 36 36 35 35 36 36 36 38 37 37 37 36 36
45 48 51 54 56 57 57 58 58 58 57 56 54 54 50 49 45 40 39 36 37 37 37 38 39 37 35 34 34 34 35 37
46 50 53 55 56 57 57 58 58 57 57 54 52 51 50 47 44 42 37 36 35 36 41 39 37 34 33 34 34 34 36 37
50 54 55 56 56 57 57 58 56 53 52 51 49 48 48 47 43 39 37 35 35 40 38 35 35 34 33 34 34 35 36 35
52 54 56 56 56 55 55 53 49 45 45 44 44 44 46 45 43 40 37 35 37 38 34 34 34 33 33 32 33 34 33 33
51 52 52 53 53 52 52 49 45 44 45 44 45 44 43 41 38 34 35 34 37 34 35 34 33 32 32 32 33 32 33 32
50 50 50 51 50 50 49 46 44 43 44 44 44 39 39 34 33 34 35 35 35 34 34 33 33 33 33 33 32 32 32 32
48 49 49 48 49 49 47 46 43 43 43 42 38 41 37 36 36 35 35 35 34 33 34 34 34 33 33 33 32 32 32 32
46 47 48 48 48 48 47 46 44 45 41 39 39 39 38 37 37 36 37 35 34 34 34 36 36 36 32 33 32 32 31 30
43 43 46 47 48 47 46 44 43 43 41 40 40 40 38 39 37 35 34 34 36 38 38 37 37 33 33 35 34 31 30 28
36 40 43 44 44 45 44 42 42 40 40 40 38 37 34 34 35 36 37 38 38 38 37 37 35 33 33 35 35 30 28 27
33 35 36 37 40 40 39 39 37 35 34 34 35 36 37 38 38 38 38 38 38 38 36 35 33 32 33 34 34 31 28 26

GFSFLT1_sfc_dewp_039.txt.gz
Dewpoint
54 55 55 56 58 59 59 61 62 62 61 60 60 61 61 62 62 61 59 57 54 52 51 51 48 46 45 43 43 43 41 40
53 55 56 56 57 59 59 61 62 60 60 59 59 60 61 61 60 60 58 55 52 52 49 48 47 45 44 45 43 43 41 42
53 54 55 56 56 58 61 61 61 60 60 58 58 59 58 58 57 55 56 53 51 50 48 46 45 44 45 45 44 41 42 41
52 54 55 56 56 58 60 60 60 59 59 58 56 55 54 54 52 51 52 51 49 48 48 45 45 45 42 43 42 42 37 40
53 53 55 56 56 58 59 60 60 59 59 58 57 56 54 54 52 49 49 49 48 46 45 45 43 41 41 41 40 41 40 36
52 54 54 56 58 60 60 60 60 59 59 59 59 57 57 54 50 49 48 47 46 43 42 42 41 39 41 42 43 42 41 41
49 53 56 56 59 60 61 60 59 59 58 58 57 57 54 52 48 46 45 43 41 41 39 40 40 39 41 42 43 43 41 40
47 49 53 56 58 59 60 59 59 59 58 57 57 56 54 52 49 46 44 42 40 39 39 39 38 39 41 42 41 41 41 39
46 47 50 55 57 59 59 59 59 58 58 58 57 56 54 54 51 47 44 42 40 39 39 39 39 39 39 39 39 38 39 39
45 47 49 53 57 58 59 59 59 59 59 58 57 56 55 53 50 47 46 42 39 40 40 41 41 39 38 37 37 37 39 41
45 47 50 52 56 57 59 59 58 59 59 58 57 57 56 53 49 46 45 42 40 39 41 42 38 37 37 37 36 36 38 39
47 49 53 54 56 57 57 58 58 58 57 57 57 55 54 52 50 47 44 42 40 38 41 38 37 35 35 35 35 35 36 37
48 52 54 56 57 57 57 57 57 56 55 53 53 53 51 50 49 47 44 42 39 38 38 36 36 34 34 34 34 36 35 35
49 52 53 54 55 55 55 55 54 51 49 49 49 48 49 49 49 47 43 39 38 38 36 35 36 35 34 34 38 37 34 34
49 51 51 52 53 53 53 51 49 47 47 47 47 47 47 46 42 39 38 38 36 37 37 37 35 34 36 39 38 35 34 34
47 49 50 50 50 50 50 48 47 46 44 43 43 43 41 40 39 39 39 38 36 36 36 39 39 39 39 38 36 36 35 34
43 43 46 48 49 49 48 46 45 45 43 41 41 40 39 39 39 38 37 36 39 39 39 39 39 40 36 36 35 33 34 33
39 41 43 44 45 47 46 45 44 43 41 40 39 37 36 37 38 39 39 39 40 39 40 41 39 38 36 35 35 33 33 33
36 37 37 38 40 40 40 39 39 38 37 36 36 37 38 39 39 39 39 40 40 40 40 38 37 36 34 33 33 32 32 33

GFSFLT1_sfc_dewp_042.txt.gz
Dewpoint
56 55 54 54 54 55 55 57 60 62 62 59 54 52 54 59 61 61 61 59 58 57 54 55 53 51 49 47 47 42 41 39
54 56 57 56 56 56 56 58 60 60 61 58 54 52 55 60 62 62 61 59 58 57 54 54 52 50 49 49 45 43 40 39
50 54 55 56 56 58 58 57 58 60 59 59 54 55 54 57 60 61 61 60 57 56 54 52 51 48 49 47 45 41 39 41
50 50 53 55 55 56 57 57 59 60 59 58 55 57 59 59 60 60 59 59 56 54 54 51 50 48 46 46 43 39 39 41
48 50 50 52 54 56 56 57 59 59 60 58 57 54 53 56 58 57 56 57 55 52 52 51 50 47 45 43 38 41 41 39
48 50 50 51 54 56 57 57 59 59 60 60 59 58 56 57 57 55 55 55 53 51 51 50 49 45 44 41 43 42 42 43
47 48 51 52 54 56 57 57 58 60 61 61 61 61 59 59 56 53 52 52 51 50 48 48 47 43 43 43 44 44 42 40
47 47 49 52 54 57 58 57 56 60 61 61 61 61 61 58 57 54 51 51 50 49 47 46 43 42 42 44 44 43 41 40
45 48 49 51 54 57 59 58 58 60 61 59 60 60 60 59 59 56 52 50 49 47 46 44 41 41 43 43 42 41 40 38
40 45 48 50 54 57 60 59 59 59 60 60 59 59 59 58 58 56 52 50 47 46 44 41 42 42 43 41 40 38 37 39
41 43 45 49 52 56 60 60 58 59 61 60 59 59 59 58 57 55 51 48 45 44 42 41 42 42 40 39 38 37 37 39
43 45 48 50 52 54 57 57 57 58 59 59 59 59 59 58 57 55 52 50 47 43 41 41 42 39 38 37 38 34 37 39
43 47 51 52 53 54 55 56 56 57 59 59 59 58 57 57 55 54 51 48 44 43 42 42 38 37 37 38 37 35 41 39
45 49 51 53 55 56 56 57 57 57 57 56 56 55 54 53 52 50 48 46 45 42 41 39 37 38 37 38 40 41 42 39
44 49 50 52 55 56 56 57 56 54 53 53 53 53 52 53 52 50 48 46 42 41 41 41 39 36 36 39 41 41 40 40
46 48 50 52 53 54 54 53 53 52 51 50 50 50 48 47 46 45 44 44 40 39 38 40 40 39 40 40 39 39 39 37
45 48 50 50 51 51 51 50 50 49 47 46 45 44 42 41 41 40 39 38 39 40 40 41 40 38 39 37 38 39 39 34
43 44 45 46 48 49 48 47 47 46 44 43 42 41 39 39 38 37 39 39 41 41 40 39 39 40 38 38 37 36 33 32
40 41 42 44 45 45 45 43 43 42 41 39 39 40 39 39 39 39 40 40 40 39 40 40 41 39 37 37 34 33 32 30

GFSFLT1_sfc_dewp_045.txt.gz
Dewpoint
52 52 49 49 51 52 53 55 57 60 62 56 53 51 53 52 52 55 60 60 60 60 57 57 57 54 53 52 51 47 43 41
53 52 52 52 53 54 54 55 56 60 59 54 51 50 50 51 54 56 59 59 59 59 56 57 57 54 53 53 50 47 43 41
53 53 51 54 53 53 54 54 55 59 60 57 53 51 48 51 54 60 61 60 59 58 58 56 56 53 53 52 49 45 43 42
49 51 52 53 52 53 53 54 56 57 56 56 54 51 51 50 53 56 61 60 59 58 58 56 55 54 52 51 49 47 41 44
44 47 52 53 54 55 55 55 55 57 57 57 55 50 51 54 57 58 59 61 60 57 56 56 55 53 52 51 47 46 44 44
44 45 45 51 54 55 56 56 55 56 57 57 58 55 53 54 56 59 60 59 59 56 56 56 55 53 52 51 47 46 45 44
43 45 46 46 49 55 58 55 55 56 57 58 58 58 57 58 60 58 56 57 57 56 54 55 55 53 51 47 46 49 45 45
41 42 45 47 49 53 55 54 53 56 59 60 60 61 61 60 61 59 57 57 56 55 55 54 52 51 50 46 48 47 46 42
41 41 43 47 50 52 55 54 54 54 59 61 62 62 62 62 61 60 58 58 56 56 54 51 49 49 47 47 46 44 44 44
39 41 43 45 49 54 58 57 55 56 60 61 62 61 60 61 61 60 59 57 55 53 51 48 47 45 47 46 43 40 43 43
35 38 42 45 48 54 60 59 58 58 61 61 60 60 60 60 60 59 57 56 52 49 48 46 45 44 45 44 41 38 40 44
40 40 41 44 48 51 55 58 58 59 60 60 60 58 59 60 60 59 57 54 51 48 47 45 44 45 44 41 38 38 40 42
39 44 47 48 49 50 54 57 57 57 60 60 60 59 58 59 59 58 56 54 52 48 45 43 45 43 41 39 39 37 39 42
39 45 48 50 51 53 54 56 55 55 56 59 59 59 58 57 56 54 52 51 49 45 44 45 42 41 39 40 40 42 43 41
36 44 47 50 53 54 55 56 57 57 56 56 56 55 54 54 53 51 49 48 47 47 44 42 41 41 39 40 41 41 39 39
35 43 47 51 53 54 56 56 55 55 54 54 54 53 53 53 52 51 49 47 44 42 42 40 41 41 41 41 39 38 40 40
43 46 49 51 53 53 53 53 53 53 51 50 50 48 46 46 45 45 45 43 42 41 40 41 41 39 39 38 38 40 40 39
44 47 49 51 51 51 51 50 50 48 46 45 44 43 42 41 40 39 39 40 40 41 41 40 40 39 38 38 37 39 39 38
44 45 46 47 47 47 47 45 45 44 43 42 42 42 40 40 40 40 41 41 41 41 40 39 39 39 38 37 37 39 37 33

GFSFLT1_sfc_dewp_048.txt.gz
Dewpoint
52 51 52 52 52 53 51 50 51 54 55 47 50 54 55 56 55 55 60 61 62 62 61 60 59 57 57 55 53 51 49 46
51 50 52 52 50 51 50 48 51 57 56 53 55 53 55 55 55 55 60 60 61 61 61 60 59 57 56 56 53 50 45 44
50 49 50 51 51 51 53 54 54 56 57 57 55 54 52 53 55 57 61 61 60 60 60 59 58 57 56 55 52 49 48 46
51 50 50 51 53 53 54 54 54 56 59 58 56 54 53 51 53 59 61 61 60 60 60 60 59 58 56 54 53 50 46 46
51 52 52 53 53 54 55 54 54 55 59 58 57 52 51 51 53 57 60 61 61 60 60 59 58 57 55 54 52 50 48 46
50 50 51 52 53 55 55 54 54 56 56 58 57 56 54 55 53 59 59 61 61 60 60 59 58 57 56 54 52 51 48 46
45 48 51 51 53 55 55 55 54 56 57 57 59 58 56 57 59 59 60 60 60 60 59 58 58 57 56 54 51 49 46 46
43 44 45 50 53 55 56 56 55 56 59 58 58 59 60 59 59 59 59 59 59 58 58 57 56 55 53 50 49 49 46 45
42 44 46 46 50 55 56 56 55 55 57 60 59 59 60 60 60 61 59 58 58 57 57 56 54 51 50 49 48 47 45 44
41 42 47 48 49 51 55 55 55 55 57 60 60 59 60 61 61 60 59 59 58 57 56 51 50 48 47 47 46 43 43 44
39 42 45 46 49 51 54 55 54 55 56 61 59 57 59 61 61 60 60 59 57 55 51 49 48 46 47 45 44 43 42 42
41 42 44 45 47 50 55 56 55 56 58 61 61 60 59 61 60 59 59 58 52 50 49 48 46 45 46 44 42 40 40 41
42 44 46 46 48 51 57 57 57 60 60 61 61 60 60 59 59 59 57 53 51 49 48 47 45 46 45 43 39 37 43 42
38 45 47 48 50 51 54 58 58 60 59 60 60 60 59 58 57 55 55 53 52 48 47 45 45 44 42 40 41 43 43 43
33 43 47 50 52 54 55 57 58 59 60 60 58 57 56 54 53 51 50 48 46 45 46 45 43 41 42 43 43 42 41 41
33 39 47 51 54 55 56 58 58 58 58 57 56 55 55 54 52 51 50 48 46 44 42 42 42 42 41 42 40 40 39 39
35 38 46 52 53 55 56 55 56 56 54 53 53 53 53 53 52 50 48 45 42 42 41 41 40 39 39 39 39 39 40 40
42 44 50 53 54 55 54 54 53 52 50 49 48 46 45 44 42 42 42 42 42 41 41 41 41 40 38 38 37 39 39 39
45 50 52 53 53 52 52 50 49 47 46 45 44 43 41 41 40 41 41 42 41 41 41 41 41 39 38 38 37 38 38 38

GFSFLT1_sfc_dewp_051.txt.gz
Dewpoint
52 52 51 52 52 53 54 54 53 54 55 51 53 52 53 55 56 56 59 58 59 60 60 59 58 56 55 55 53 52 49 44
52 52 51 51 52 51 52 52 51 52 53 50 48 48 52 53 55 54 57 59 60 60 60 59 59 56 55 54 53 49 44 42
50 51 51 51 52 51 50 50 50 50 55 45 45 50 53 54 54 54 56 60 60 60 60 58 58 57 56 54 51 47 45 42
49 50 50 49 49 49 48 47 48 50 55 53 50 53 53 51 53 53 56 60 60 60 59 59 58 58 56 53 51 47 45 45
49 50 50 49 48 50 50 47 47 50 54 54 51 53 52 50 50 53 59 60 60 60 60 59 58 58 56 54 53 51 48 44
49 47 49 50 50 49 51 50 50 52 54 55 56 56 53 51 50 54 58 60 60 60 60 59 58 58 57 55 53 51 50 48
50 49 49 49 51 52 52 52 53 53 54 55 57 58 57 53 53 54 59 60 60 61 61 59 59 58 57 55 52 51 49 47
50 50 50 50 50 52 53 53 53 53 53 54 57 58 57 55 56 56 57 58 58 58 59 58 58 56 55 53 50 48 48 47
49 50 51 51 51 52 53 53 53 53 54 56 57 57 58 58 58 58 58 58 58 58 58 57 55 54 51 50 49 48 48 47
45 48 49 49 51 51 53 53 52 54 55 57 57 57 57 58 58 59 58 56 56 56 57 55 54 51 49 49 47 47 46 44
42 44 46 47 50 51 53 54 54 54 55 58 57 57 58 59 59 58 58 57 56 55 55 53 50 48 47 47 46 45 44 44
41 43 45 45 46 50 54 55 57 56 55 56 58 57 58 59 59 58 58 56 54 54 52 50 48 47 47 45 44 43 44 43
38 41 44 46 47 53 55 56 59 58 57 58 59 59 59 59 58 58 58 56 53 51 50 49 47 46 45 44 42 41 42 43
40 43 44 47 49 52 54 56 56 56 58 60 60 60 59 58 57 56 55 53 51 49 49 47 46 46 44 42 40 42 44 43
42 44 45 48 50 54 56 57 58 58 59 60 58 57 56 55 54 53 52 52 49 48 47 46 46 44 42 42 43 43 43 42
33 44 47 50 53 56 56 57 59 60 59 57 55 54 54 53 51 51 49 48 47 46 45 43 43 42 42 43 42 42 40 40
27 36 50 53 54 56 55 55 56 56 56 55 54 54 53 52 51 49 48 45 44 43 42 42 42 41 40 39 40 39 39 39
36 42 51 53 55 55 54 54 54 53 53 53 53 51 50 50 49 46 43 41 40 40 39 39 39 39 38 38 37 39 39 39
44 52 54 54 54 53 52 50 49 48 46 47 46 44 42 42 41 41 41 40 39 39 39 39 39 38 38 38 37 38 36 36

GFSFLT1_sfc_dewp_054.txt.gz
Dewpoint
52 52 52 54 52 53 53 54 53 54 54 52 53 53 53 54 54 54 57 57 57 58 59 59 58 56 54 53 52 52 50 48
51 51 51 53 53 53 52 53 53 54 53 51 51 50 51 52 54 54 54 57 57 57 59 58 58 57 55 54 53 51 46 44
51 51 51 52 52 52 52 51 52 53 53 51 49 48 50 53 53 53 54 57 58 59 59 58 58 57 55 54 52 48 47 42
51 51 50 51 51 51 52 51 50 51 53 50 47 48 53 52 53 53 54 56 58 59 59 58 57 56 55 54 52 49 47 45
51 51 50 50 51 51 51 51 50 50 52 52 45 44 45 49 53 53 53 56 58 59 59 59 57 58 56 55 54 51 51 47
49 50 50 50 51 50 49 49 49 49 49 54 50 48 49 52 53 51 53 58 59 59 59 58 58 58 58 56 55 52 51 49
49 50 49 50 49 49 48 47 48 48 48 52 53 51 52 53 53 52 53 57 59 59 60 59 58 58 58 58 56 54 51 48
49 49 49 49 48 48 49 47 46 47 47 50 52 52 53 55 55 53 53 56 57 58 59 58 58 58 58 57 54 53 49 48
49 48 48 49 49 49 49 49 47 47 48 51 52 52 54 57 57 55 54 56 57 57 58 57 57 56 55 54 51 49 49 48
50 49 48 48 49 50 50 50 50 50 51 53 53 54 54 57 58 57 56 56 57 57 57 56 55 54 53 50 48 47 48 47
47 50 51 50 50 51 53 52 52 52 53 54 54 54 56 57 58 57 57 57 56 55 55 55 53 51 49 48 47 47 46 45
45 48 50 51 52 52 53 54 54 54 55 54 55 56 57 58 58 58 58 58 57 55 55 53 51 48 47 47 46 45 44 45
41 44 48 50 51 52 53 54 54 55 55 55 56 58 58 59 58 58 59 57 56 55 53 51 49 47 46 45 44 44 44 43
40 42 43 45 47 49 52 54 55 56 57 57 58 58 58 59 59 58 57 56 54 53 52 50 48 47 45 44 43 43 43 43
39 43 45 46 46 47 49 55 56 56 57 57 58 58 58 59 58 57 56 55 53 52 51 49 47 45 44 42 42 43 43 43
40 42 45 49 52 50 49 53 56 56 56 55 57 58 58 58 57 55 53 53 51 49 47 46 45 44 43 42 42 42 42 42
36 43 46 52 55 54 54 55 56 57 56 58 57 56 55 54 53 51 50 48 48 45 44 44 43 43 40 40 41 41 41 40
30 41 49 54 55 56 56 56 57 57 57 56 55 54 52 51 50 48 46 45 45 43 43 43 42 42 39 39 38 39 39 38
30 44 52 55 55 54 54 54 54 54 54 53 53 52 51 49 46 44 42 43 41 41 40 40 40 39 38 37 36 37 36 36

GFSFLT1_sfc_dewp_057.txt.gz
Dewpoint
52 52 54 54 54 55 55 55 55 54 54 55 55 53 54 55 55 56 58 59 59 58 58 58 59 58 56 54 52 51 50 47
51 52 53 53 52 53 53 54 55 55 51 53 52 51 51 52 54 54 56 57 57 58 58 58 58 56 55 54 52 51 49 46
51 50 51 53 52 52 53 53 53 54 51 49 50 49 50 52 52 53 54 55 57 57 58 58 58 56 54 54 52 50 49 44
50 49 50 52 52 52 52 52 52 52 52 51 49 48 49 51 51 53 53 54 56 57 57 57 56 56 55 54 53 50 50 45
51 50 49 50 51 52 51 51 51 51 53 52 49 46 45 48 51 52 53 54 55 57 58 57 57 57 55 55 54 52 51 48
51 51 50 50 51 51 52 51 50 50 51 52 50 47 46 47 51 52 52 54 55 57 58 57 57 57 57 56 54 52 51 51
50 51 51 50 51 51 51 51 51 49 50 52 52 48 47 49 51 52 53 53 55 57 58 58 58 57 56 56 56 54 53 53
49 50 50 49 50 51 50 50 50 50 49 49 52 52 49 49 50 52 53 52 54 56 57 57 58 58 58 58 56 56 54 52
49 49 49 49 49 50 49 49 49 49 49 48 49 52 52 51 50 53 54 53 54 56 57 58 58 56 56 55 55 54 52 50
49 49 49 48 49 49 49 49 48 48 49 49 48 49 51 51 52 53 56 55 55 55 57 57 55 55 55 53 52 50 49 49
49 49 50 49 49 49 49 49 47 47 47 47 47 48 51 50 52 54 57 57 57 56 55 55 55 54 54 52 48 48 48 48
47 49 50 49 50 51 51 50 49 49 48 47 48 49 51 53 53 55 57 57 57 57 56 55 54 53 50 48 47 47 46 45
44 47 50 49 49 50 51 53 52 52 50 50 51 52 53 54 55 57 58 57 57 57 57 55 53 52 51 49 47 46 45 45
42 45 47 50 50 50 51 52 53 53 54 53 54 55 55 55 56 58 58 58 58 56 55 54 52 51 49 49 46 46 45 44
39 42 45 49 50 51 52 52 53 54 54 54 55 56 56 56 57 58 58 58 56 54 54 52 50 49 49 47 46 44 44 44
38 40 42 44 47 49 51 52 54 54 54 54 54 56 57 57 58 58 58 56 55 53 52 50 49 47 46 44 44 43 43 42
33 40 43 46 45 46 47 49 53 54 54 55 56 57 57 57 58 56 55 53 52 50 49 47 47 45 40 40 42 43 42 42
30 39 43 46 48 50 49 49 53 56 55 56 56 57 57 56 53 51 51 50 49 46 46 45 45 44 39 40 39 42 41 40
30 33 44 47 53 54 53 54 55 55 55 56 56 55 53 52 51 49 46 46 45 45 45 45 44 42 38 38 37 39 38 37

GFSFLT1_sfc_dewp_060.txt.gz
Dewpoint
52 53 54 55 56 57 56 56 56 56 56 56 55 55 56 57 57 56 57 56 56 56 57 57 57 56 55 54 53 52 50 48
52 52 54 54 55 55 55 55 55 55 54 54 55 54 53 54 55 57 58 58 58 58 58 58 58 57 56 55 53 51 50 48
51 50 52 52 53 53 54 54 54 55 56 54 54 53 51 52 53 54 56 57 58 58 58 58 58 57 55 54 52 51 51 47
49 49 50 52 52 52 53 53 54 54 54 53 49 49 53 50 51 52 53 54 56 57 57 58 57 57 55 54 53 51 50 48
49 48 48 51 52 52 52 52 52 52 53 52 49 48 50 50 50 51 52 54 54 55 56 56 56 56 55 54 54 52 51 48
50 50 49 50 52 52 52 52 52 51 51 50 50 48 48 48 51 51 52 54 54 55 56 56 56 56 56 55 53 52 51 50
51 51 50 50 51 51 51 51 50 51 52 51 50 49 48 47 47 50 51 52 53 54 56 55 56 56 56 56 55 55 54 53
50 50 49 49 50 50 51 51 50 50 50 51 52 50 49 48 47 49 50 51 52 53 54 55 55 56 57 57 56 56 55 54
50 50 50 49 50 50 50 51 51 51 49 49 51 52 51 49 49 50 51 52 52 53 54 55 55 56 57 57 57 56 56 54
49 49 50 49 49 50 50 50 50 50 50 49 49 50 52 52 51 50 51 52 53 53 54 55 55 55 55 56 56 54 53 52
48 49 49 50 49 50 50 50 49 49 50 50 49 48 50 51 52 51 51 52 54 54 54 54 55 54 54 53 52 50 51 48
48 49 50 49 49 49 50 50 49 48 49 49 49 49 49 50 50 51 52 53 56 56 56 56 56 55 55 54 52 50 50 48
45 48 49 50 49 49 49 49 49 49 49 48 49 50 50 49 50 50 52 54 56 56 56 57 57 55 52 52 50 50 49 47
43 46 49 50 50 49 50 50 49 50 50 49 48 48 49 49 50 51 53 54 56 56 57 56 56 54 53 52 51 50 48 47
39 43 47 50 50 50 50 51 51 50 50 50 49 49 50 50 51 53 54 56 55 56 57 56 55 53 52 51 49 48 47 47
35 41 44 47 50 50 50 50 51 52 52 51 51 52 52 53 54 55 56 56 56 56 57 54 52 50 49 48 48 47 45 44
29 37 41 45 48 49 50 51 51 52 52 52 52 53 53 54 55 56 56 56 57 57 55 53 50 49 43 43 45 45 44 43
29 32 39 41 44 48 49 51 52 53 53 53 53 53 54 55 56 56 56 56 54 53 51 50 48 47 41 41 40 43 43 42
31 30 35 42 45 47 47 48 50 53 53 54 54 54 55 56 55 55 53 51 51 49 49 47 46 43 39 39 39 41 40 39

GFSFLT1_sfc_dewp_063.txt.gz
Dewpoint
51 51 54 56 58 58 58 58 58 58 58 59 58 58 59 60 59 57 57 56 57 57 56 57 57 56 57 55 55 53 50 49
51 52 54 55 57 56 56 56 58 58 57 56 56 57 58 58 59 57 57 56 57 58 58 58 58 57 57 57 57 54 52 52
51 50 54 54 55 56 56 55 56 57 57 56 55 57 56 57 58 57 57 57 57 57 58 59 58 58 58 57 56 56 54 52
50 50 51 53 53 54 55 54 55 56 56 55 54 53 54 54 55 56 57 58 58 59 59 60 60 60 59 59 58 56 55 53
50 49 50 52 53 55 55 54 54 55 55 55 54 52 52 54 54 55 56 58 58 58 58 59 60 60 59 59 58 58 57 54
50 50 50 51 52 54 54 54 54 54 54 53 51 53 53 52 52 54 54 56 56 56 57 58 59 59 60 60 59 58 57 56
51 51 50 50 52 53 54 53 53 53 53 53 52 52 51 51 51 52 54 56 56 57 56 58 59 59 59 59 60 59 58 57
51 51 50 50 51 52 53 52 52 53 53 52 52 52 52 52 51 52 53 54 55 55 56 58 58 58 59 59 59 59 59 58
51 51 51 50 51 52 52 51 52 52 53 52 52 52 52 51 51 51 52 54 54 55 55 56 57 58 58 59 59 59 59 56
50 51 51 51 51 51 52 51 51 52 52 53 53 53 52 52 53 54 53 53 54 54 55 55 56 57 58 59 59 59 59 58
49 51 52 51 51 51 52 52 51 52 52 53 52 52 53 53 54 53 53 53 53 54 54 55 55 56 57 58 58 58 57 58
48 50 51 51 51 51 52 52 51 52 52 52 53 52 53 53 54 54 54 55 54 54 54 54 54 55 57 57 57 57 56 56
47 49 50 51 51 50 51 51 51 52 52 52 53 53 52 52 52 53 54 54 54 54 54 54 54 56 56 56 56 54 53 52
43 48 49 50 50 50 50 51 51 51 52 52 53 53 53 52 52 52 53 53 54 54 54 55 55 54 56 56 55 54 53 53
36 45 48 50 51 50 50 52 52 51 51 50 51 52 52 53 53 53 53 53 53 54 55 55 55 56 56 55 54 53 52 51
33 38 44 48 50 51 51 51 52 52 51 50 51 52 51 52 52 53 53 53 53 53 54 55 57 57 56 55 54 53 51 49
34 35 39 45 49 50 51 51 53 52 52 51 51 52 51 52 52 53 53 54 54 55 55 56 56 55 47 47 51 51 49 47
35 35 37 42 46 50 51 52 52 53 53 52 52 52 52 53 53 53 54 56 56 56 56 57 56 55 45 45 44 49 47 45
36 36 37 39 42 46 50 50 52 52 52 52 53 54 53 53 54 55 56 57 56 56 56 53 53 49 43 41 40 45 43 43

GFSFLT1_sfc_dewp_066.txt.gz
Dewpoint
50 52 54 57 58 59 59 58 57 59 60 60 60 60 59 60 60 57 55 53 55 54 53 55 56 55 54 52 54 53 51 49
50 52 53 55 58 57 58 57 57 58 57 58 58 58 59 58 57 58 58 55 57 57 55 56 56 55 56 57 56 55 53 54
50 51 52 55 57 57 57 57 57 57 57 57 55 58 57 58 56 58 57 57 57 57 57 55 55 55 57 58 57 55 55 55
50 51 52 54 55 56 57 57 57 57 57 57 55 55 56 57 57 57 57 57 56 57 58 57 57 57 56 57 57 56 55 56
50 50 51 53 54 56 57 57 57 57 57 56 55 52 51 54 55 56 55 58 57 56 58 58 59 60 59 58 57 57 59 55
50 50 50 51 54 54 56 56 56 56 56 55 54 52 52 55 55 56 55 57 58 58 59 59 60 61 60 62 60 59 58 59
50 51 50 50 53 55 55 55 55 56 56 56 55 55 54 54 55 56 55 56 57 58 58 59 60 59 59 59 59 61 59 59
50 50 50 49 51 53 53 54 53 56 55 55 54 54 54 53 54 54 54 55 55 56 57 57 57 56 57 58 59 58 58 58
49 50 51 50 51 52 54 53 52 54 55 55 54 53 53 53 54 53 54 54 54 55 57 57 57 57 56 57 58 57 59 59
48 50 51 51 50 52 53 52 52 53 55 56 55 54 54 53 54 54 54 54 53 55 57 56 57 55 55 56 57 56 57 60
47 49 52 52 51 52 54 53 51 53 54 55 54 54 54 53 54 54 54 54 54 55 55 55 54 54 54 55 55 56 57 59
46 48 51 52 52 51 52 52 51 52 53 54 54 55 56 55 55 55 54 55 54 54 53 53 53 53 54 55 55 55 56 58
44 48 50 51 52 51 51 52 52 52 53 53 54 55 54 55 55 55 56 55 55 54 54 52 52 52 54 55 55 55 56 57
39 46 48 50 51 52 51 52 51 52 52 52 54 54 55 55 54 54 55 54 55 55 53 54 54 54 53 54 55 55 56 55
36 42 46 48 50 51 51 52 52 52 51 51 52 54 55 55 54 54 54 54 53 54 55 54 55 54 53 55 54 55 55 54
33 35 41 45 49 50 51 52 52 52 51 50 52 54 53 54 54 54 55 55 54 54 54 55 55 55 54 55 53 55 55 55
32 33 34 38 44 48 50 51 52 53 52 52 51 52 52 53 54 54 54 54 53 53 54 54 55 53 47 46 50 56 55 55
33 35 36 37 39 45 49 50 52 52 52 52 52 52 52 53 52 52 52 54 54 55 54 53 54 55 46 45 45 55 55 53
33 34 36 36 38 40 46 47 50 52 52 51 52 52 52 52 53 52 53 54 55 55 55 55 56 55 45 46 44 52 49 48

GFSFLT1_sfc_dewp_069.txt.gz
Dewpoint
48 50 53 57 59 60 59 59 59 59 60 60 59 59 60 60 60 58 58 57 59 57 56 59 57 54 53 54 54 52 51 50
49 51 53 57 58 59 58 57 58 59 59 59 57 57 58 59 58 58 57 56 56 57 55 58 59 57 56 58 56 57 53 53
49 51 52 54 57 58 58 57 57 58 58 57 57 56 57 55 57 58 56 56 54 54 55 56 57 57 59 59 58 57 55 57
49 50 52 54 56 57 58 57 57 57 57 57 57 57 57 55 55 57 57 57 56 55 56 58 58 57 58 60 60 59 56 57
48 50 50 53 55 57 57 57 57 56 57 56 55 54 55 54 54 55 55 59 56 56 57 58 59 58 58 59 59 59 59 57
48 49 49 51 55 56 57 57 57 57 57 56 55 54 54 55 53 54 56 56 58 55 58 59 58 60 60 61 60 60 60 57
47 49 49 48 54 56 57 57 57 57 57 57 56 55 54 53 56 53 55 56 57 58 58 58 59 59 61 60 59 59 59 60
47 47 48 48 51 55 55 56 55 57 57 57 57 56 53 53 55 56 55 56 57 57 58 56 56 56 57 59 58 59 58 59
46 47 48 48 50 53 54 54 54 56 57 56 57 56 54 53 54 55 56 55 55 56 57 56 56 56 57 57 58 57 59 59
46 47 48 49 49 52 54 53 53 55 56 57 57 57 56 56 56 57 57 56 53 54 55 56 57 56 56 56 55 56 57 58
44 47 49 50 50 51 54 53 52 52 55 57 56 56 57 56 56 56 56 57 56 55 55 55 55 55 55 55 53 56 57 58
43 46 49 50 50 50 52 52 52 52 53 55 56 56 56 57 56 56 56 57 57 56 56 56 55 55 55 55 55 55 55 56
42 45 48 50 51 51 50 52 52 52 53 53 56 57 57 57 56 57 57 56 57 56 56 55 55 54 55 55 55 54 55 55
38 44 46 48 50 51 50 51 51 51 51 53 55 57 57 57 57 57 57 57 56 55 54 54 54 55 55 55 55 55 55 55
33 39 44 47 49 51 51 52 52 51 50 51 53 56 56 57 57 57 57 57 56 55 55 54 55 54 53 54 54 55 55 55
30 33 39 43 47 49 51 51 52 52 51 50 52 56 56 56 57 57 57 57 56 56 56 56 56 55 53 55 54 55 54 54
32 33 33 34 41 46 48 51 53 53 53 53 52 54 54 55 57 57 57 57 56 56 56 56 56 54 47 45 50 56 54 55
35 35 33 36 37 39 46 48 51 53 53 53 53 53 53 55 55 55 55 57 57 57 56 56 56 56 46 44 43 54 55 54
40 39 37 37 40 38 39 42 48 50 51 52 53 53 53 53 54 54 55 56 56 56 57 57 56 55 44 43 43 54 55 55

GFSFLT1_sfc_dewp_072.txt.gz
Dewpoint
49 51 53 56 59 59 59 59 60 59 60 60 59 59 59 59 59 60 59 58 57 59 59 58 60 57 57 55 54 54 53 52
49 52 54 56 59 59 59 59 59 59 59 58 58 58 58 57 58 58 59 59 57 58 59 59 58 56 56 57 56 55 55 54
49 51 53 56 56 58 58 57 58 58 59 58 57 58 57 56 57 58 58 58 57 57 57 57 58 57 57 56 56 56 55 55
48 50 52 55 55 57 57 57 58 58 58 57 57 57 57 56 55 56 57 56 56 56 56 56 57 57 57 58 58 56 55 55
48 50 52 53 55 57 57 57 57 58 58 57 56 55 54 53 51 53 57 58 56 55 56 56 56 57 59 59 60 57 57 55
47 49 51 52 55 55 58 57 57 57 57 56 56 55 54 53 50 51 56 57 57 56 57 58 57 57 59 59 59 58 58 56
47 50 50 51 55 55 58 57 57 56 57 56 56 55 54 54 52 52 55 55 57 57 58 59 59 60 59 58 58 58 57 56
46 48 48 50 54 56 57 57 56 57 57 56 56 56 55 55 52 51 54 54 55 57 56 57 56 57 59 59 58 57 57 56
46 48 48 48 54 55 56 56 56 57 57 57 56 56 55 55 54 52 52 54 55 56 57 56 56 57 57 57 56 57 56 57
45 47 49 49 51 55 55 56 55 56 57 57 57 56 56 55 55 55 54 54 54 55 56 56 55 54 55 55 55 55 55 55
45 46 49 49 50 53 56 55 54 56 56 57 57 56 56 55 54 54 56 56 55 55 55 56 55 54 54 54 53 54 55 55
44 46 49 50 51 52 54 54 53 55 56 56 56 56 57 57 55 55 54 57 56 54 55 54 54 53 53 53 53 53 53 52
44 46 49 49 50 50 52 54 53 53 55 56 56 56 56 57 56 56 56 55 56 55 54 54 53 53 53 53 53 52 52 51
42 46 47 49 50 51 50 53 53 53 53 55 56 56 56 56 56 56 56 56 55 55 55 53 53 53 53 53 52 52 52 52
37 42 45 48 51 52 52 52 53 52 52 53 54 56 56 56 56 56 56 56 55 55 55 54 54 54 53 53 52 53 52 52
34 36 41 45 49 52 52 52 53 53 52 51 53 55 56 57 56 57 56 56 55 54 55 55 54 54 53 53 53 53 53 53
38 37 36 37 44 48 51 52 53 53 52 51 52 53 55 55 56 57 57 56 56 55 55 54 54 53 47 44 48 52 52 52
41 43 43 43 41 44 44 51 53 53 53 53 52 52 52 55 55 55 55 56 56 56 55 55 55 54 46 44 43 52 53 53
44 45 47 48 50 50 50 48 45 52 53 53 53 53 53 53 54 54 55 55 55 55 55 55 55 54 45 44 42 50 52 53

GFSFLT1_sfc_dewp_075.txt.gz
Dewpoint
50 54 56 58 59 59 57 58 59 59 59 60 60 60 60 60 59 59 59 58 58 57 60 60 60 57 58 54 52 52 50 50
50 55 56 58 59 59 58 58 59 59 58 58 58 57 59 59 59 58 59 58 58 58 59 59 60 59 57 54 53 52 52 51
50 55 55 57 58 58 58 58 58 59 58 57 58 57 58 58 58 58 57 57 57 57 57 58 59 59 58 56 54 55 54 52
49 54 54 55 57 58 57 56 58 58 58 57 58 57 57 56 57 56 55 56 57 56 57 57 58 58 57 55 55 53 54 54
49 52 54 54 55 57 57 57 57 58 58 57 57 56 55 55 55 55 55 58 57 56 56 56 56 55 55 57 57 55 56 54
49 50 54 54 54 57 57 57 57 57 58 57 56 56 55 55 54 54 56 56 57 56 56 56 56 57 57 58 57 57 57 55
48 50 52 54 55 56 57 57 56 57 58 56 56 55 54 54 53 52 54 55 57 56 57 56 56 56 58 58 58 57 57 56
48 50 51 53 54 55 56 56 56 57 57 56 55 55 54 53 50 50 52 55 56 56 56 57 57 56 57 58 58 57 57 56
48 49 50 53 54 54 55 56 56 56 56 56 56 55 54 53 51 49 50 54 55 57 56 58 57 57 58 58 58 57 57 57
47 48 49 53 54 54 55 54 54 57 56 56 56 56 55 55 53 51 50 53 54 55 56 56 57 56 56 57 57 56 56 56
47 47 48 53 54 55 55 56 55 55 57 57 56 56 56 55 55 53 51 51 53 55 56 56 56 55 55 55 54 54 55 55
46 47 48 50 54 54 55 56 55 56 56 56 56 56 56 56 54 55 54 52 52 54 55 56 56 55 54 53 53 53 53 53
46 47 48 48 50 54 54 54 55 55 55 56 56 56 57 56 55 54 55 55 54 54 54 54 55 55 54 52 52 51 52 52
45 47 48 48 49 51 53 54 53 54 55 55 55 55 55 55 56 55 54 54 55 55 54 54 54 54 53 52 52 52 52 53
43 46 48 48 49 50 52 53 54 53 55 55 55 55 55 54 55 56 56 55 54 55 55 54 54 54 53 52 52 52 52 52
42 42 43 46 51 51 50 52 53 53 53 54 55 55 55 55 55 56 56 55 55 55 55 55 54 53 53 53 52 52 52 52
44 46 48 48 49 52 53 52 52 53 52 52 53 55 56 56 56 56 56 55 55 55 55 54 54 54 48 45 49 52 52 51
46 48 47 47 48 49 50 52 54 55 53 52 52 53 54 55 56 56 55 55 55 55 55 55 54 54 46 44 43 52 53 53
47 46 45 45 45 49 50 49 49 50 53 54 54 54 53 54 55 55 55 56 56 55 55 55 55 54 45 44 41 49 52 52

GFSFLT1_sfc_dewp_078.txt.gz
Dewpoint
53 56 58 58 57 56 56 57 58 59 60 61 61 62 62 62 62 61 60 59 57 53 55 58 54 52 54 54 53 52 50 50
54 56 58 58 56 56 56 57 59 59 59 58 59 58 60 60 60 59 59 58 58 56 54 59 57 56 55 54 52 50 51 50
54 56 57 57 57 56 57 57 58 57 58 58 58 58 59 59 59 58 58 58 57 57 55 58 58 57 56 54 52 53 52 50
54 55 56 56 56 56 57 57 57 58 58 58 58 58 58 58 58 58 58 58 57 57 58 58 58 57 56 54 53 52 52 51
53 54 55 55 56 57 57 57 58 58 57 57 56 56 55 57 57 57 56 57 57 57 57 58 58 57 57 57 56 53 53 51
52 53 55 55 56 56 56 57 57 58 57 57 56 55 55 56 57 56 56 57 57 57 57 57 57 57 57 57 57 55 55 54
51 53 54 54 55 56 56 56 57 58 57 57 56 55 55 55 55 55 55 56 57 57 57 57 57 57 55 57 58 56 55 55
50 53 53 53 55 55 56 57 56 57 57 57 56 56 55 54 54 54 54 54 56 56 56 56 56 57 56 56 57 56 55 54
49 51 52 53 54 55 55 56 56 56 57 56 56 55 55 55 54 53 53 54 55 56 56 56 55 56 57 57 57 57 57 56
49 51 52 53 53 55 55 55 55 55 57 57 56 56 55 54 53 53 52 53 54 57 56 56 56 56 56 57 57 56 57 56
49 50 52 53 53 54 54 54 54 56 57 57 56 56 55 54 53 50 51 51 53 55 56 56 57 57 57 57 56 56 56 56
48 49 52 53 54 54 54 54 53 55 56 56 56 56 56 55 54 52 50 50 53 54 55 56 55 56 56 56 55 55 55 55
48 48 51 53 54 54 55 55 54 55 56 56 56 56 56 55 55 55 53 51 51 53 54 55 55 55 55 55 54 54 54 54
47 48 49 52 53 54 54 55 55 55 55 56 56 56 56 55 55 55 55 53 52 51 52 53 54 55 55 54 53 53 52 52
46 48 49 50 51 54 54 55 55 55 55 55 55 55 55 55 56 56 55 55 55 54 53 53 53 53 54 54 53 53 52 51
48 48 49 52 53 53 52 53 54 54 55 55 54 55 55 55 55 55 56 55 54 54 55 55 54 54 53 53 53 53 52 51
45 46 46 47 50 52 53 54 55 55 54 55 56 55 55 55 54 54 54 55 55 55 54 54 55 54 48 46 50 53 52 51
43 43 42 43 45 47 47 48 50 52 55 54 54 55 55 55 55 55 54 55 55 55 55 55 54 54 46 44 43 52 52 52
40 40 39 39 42 43 44 44 45 46 46 47 47 47 49 52 56 55 55 55 55 55 55 55 55 55 45 44 42 50 52 53

GFSFLT1_sfc_dewp_081.txt.gz
Dewpoint
49 53 57 56 56 55 56 56 58 60 60 62 62 62 61 62 63 62 61 60 57 55 54 53 52 49 52 53 50 50 51 52
53 56 57 56 55 55 56 56 57 59 59 59 60 60 61 62 62 62 60 58 55 52 53 53 52 50 52 53 52 50 50 51
55 56 57 57 55 55 55 55 57 56 59 58 59 60 60 61 61 61 61 58 54 52 54 51 52 52 54 54 52 50 50 50
54 55 56 56 55 55 55 56 56 57 58 58 58 59 59 59 59 60 60 59 57 52 54 53 54 54 54 54 52 50 50 50
53 55 55 55 55 56 55 55 57 57 58 57 57 57 56 57 58 59 58 59 58 57 56 58 55 55 55 55 54 51 53 49
52 55 55 55 55 55 55 55 57 57 57 57 56 56 56 58 58 57 57 58 59 58 58 58 58 57 57 56 55 54 53 51
52 54 55 54 55 55 55 56 55 57 57 56 55 55 55 56 57 57 57 57 58 58 58 58 58 57 57 57 57 55 55 53
52 53 54 54 54 54 55 55 56 57 56 56 55 54 55 55 56 56 56 56 57 57 57 57 57 57 57 57 57 57 56 54
52 53 53 54 54 54 55 55 56 57 57 56 56 54 54 55 55 55 55 55 55 56 56 56 57 57 56 56 57 57 56 55
51 52 52 53 53 54 54 55 55 56 57 56 56 56 55 55 54 55 55 55 55 55 56 56 56 56 56 56 55 56 56 56
50 52 52 53 54 54 55 55 55 55 57 57 56 56 55 55 54 53 53 53 54 55 56 55 56 56 56 56 56 55 56 55
50 51 52 53 54 55 55 55 54 54 56 57 56 56 56 55 53 52 52 52 53 55 56 56 56 56 55 55 55 55 55 54
49 51 52 53 53 54 54 54 54 55 56 57 56 56 56 55 54 53 51 51 52 54 54 56 56 56 56 55 55 54 55 54
48 52 52 53 53 54 54 54 53 54 55 55 56 56 56 56 55 55 53 51 50 52 53 54 55 55 55 55 55 55 55 55
51 50 52 54 54 54 55 55 55 55 55 55 55 54 55 56 56 55 56 54 52 51 51 52 53 54 55 55 54 54 54 54
47 49 51 52 53 54 54 55 55 55 55 55 55 55 55 55 55 55 55 56 55 54 53 52 52 52 52 53 54 53 53 53
44 45 46 47 47 48 49 49 51 55 55 55 55 55 55 55 55 55 55 55 55 55 55 55 53 52 47 44 48 52 53 52
40 40 42 42 43 43 44 45 46 48 48 48 49 53 55 54 54 54 54 54 55 55 54 54 54 55 46 45 44 52 53 53
37 37 37 38 39 39 39 40 41 41 42 42 42 45 46 49 51 55 55 55 54 55 55 55 55 54 42 44 43 51 53 53

GFSFLT1_sfc_dewp_084.txt.gz
Dewpoint
36 50 55 56 56 55 56 55 57 60 62 63 62 61 60 61 61 62 61 61 62 61 59 57 56 54 53 51 50 52 53 53
38 53 56 55 55 56 56 55 55 58 59 60 60 60 60 60 62 62 62 61 62 59 56 55 54 54 52 51 50 52 52 53
52 54 55 56 55 56 56 56 56 58 57 59 59 60 61 61 61 61 60 59 58 56 54 53 52 52 52 52 50 50 51 53
53 55 55 56 55 55 55 55 55 56 59 58 59 59 59 60 61 60 59 58 56 55 54 52 50 51 51 52 50 50 51 51
52 54 54 55 55 55 55 55 55 56 58 58 57 57 57 58 59 60 58 57 55 55 53 51 51 51 51 53 51 50 52 50
51 54 54 55 55 55 55 55 54 57 57 57 57 57 57 58 59 59 59 58 56 56 57 54 53 54 55 55 54 54 53 51
52 54 55 55 54 54 55 55 55 56 57 57 56 56 57 57 57 57 58 58 58 57 57 57 57 56 56 55 55 54 53 52
52 53 54 54 54 54 54 54 54 56 56 56 56 55 56 57 57 57 57 57 57 58 57 56 58 57 57 56 56 55 54 53
50 53 54 53 54 54 54 53 54 55 56 56 55 55 56 56 57 57 57 57 58 58 58 58 57 57 57 57 57 56 55 55
49 52 54 53 53 54 53 53 54 55 55 56 55 55 54 55 55 56 57 57 57 58 58 58 58 58 57 57 56 56 56 56
50 52 53 54 53 54 54 54 55 55 56 56 56 55 55 55 55 54 54 55 56 56 57 57 57 57 57 55 55 55 56 56
51 52 53 54 53 53 54 54 54 55 56 55 55 56 55 54 54 53 53 53 54 55 56 56 56 56 56 55 55 55 55 54
51 52 52 52 52 52 53 53 54 54 55 56 56 56 55 55 54 53 52 52 53 54 55 55 56 55 55 56 56 56 55 55
51 52 52 52 52 52 52 53 53 54 55 56 56 56 56 55 54 53 52 51 52 53 54 55 55 55 55 55 55 55 55 55
51 52 52 52 53 53 53 54 54 54 54 54 54 54 55 56 55 55 53 52 51 52 53 54 54 54 55 55 55 55 55 55
47 49 51 52 53 54 54 54 54 54 54 54 54 54 54 54 54 54 55 54 52 51 51 52 53 53 54 54 54 54 54 54
43 44 45 46 47 47 48 49 51 55 54 54 55 54 54 54 53 54 54 54 54 54 53 52 52 51 46 44 50 54 54 54
39 40 41 41 41 41 42 43 46 47 47 46 47 50 54 54 54 54 55 55 55 54 54 54 54 54 43 43 43 51 52 53
35 37 37 37 37 37 37 37 38 38 39 39 41 42 43 45 47 47 51 53 55 55 55 55 55 39 36 36 37 47 52 52

GFSFLT1_sfc_dewp_087.txt.gz
Dewpoint
31 34 46 54 58 60 61 62 61 63 63 62 62 61 61 61 61 61 62 62 63 62 62 60 60 59 56 55 56 56 56 55
32 35 50 56 59 59 59 60 60 61 62 61 61 60 60 60 61 62 61 62 62 62 60 59 59 59 56 56 56 56 55 55
33 46 53 55 57 58 59 59 59 59 60 61 61 61 61 61 61 61 61 61 62 61 59 58 58 59 57 55 56 55 55 55
33 48 53 55 56 58 57 58 58 59 59 59 60 61 61 61 60 61 61 61 62 60 59 59 59 57 55 55 56 55 53 55
33 46 53 55 56 57 57 57 57 58 59 57 58 57 57 59 60 60 59 60 60 58 59 58 56 56 56 55 54 54 56 54
35 47 52 55 56 55 56 57 56 56 58 58 58 57 58 59 60 59 57 57 57 57 57 55 54 55 56 55 54 56 57 55
40 51 54 55 55 55 55 55 56 56 57 58 58 58 58 58 58 57 56 56 57 55 54 54 54 55 56 56 56 56 57 56
50 53 53 55 55 55 56 55 55 56 57 58 58 58 58 58 57 57 57 56 56 57 56 56 56 57 56 56 57 55 55 55
48 52 54 54 54 54 55 55 54 55 56 57 57 57 58 57 57 58 58 57 56 56 56 56 57 57 57 57 56 56 56 57
44 52 54 54 54 54 54 54 53 55 56 56 56 57 57 57 58 58 58 59 58 57 56 55 55 54 55 57 56 55 56 57
44 49 54 54 54 54 55 54 53 55 55 56 55 55 56 57 57 57 57 58 58 58 58 56 56 55 53 54 55 57 55 55
50 52 53 53 54 54 54 54 53 55 55 55 56 55 56 56 56 57 57 57 57 58 57 57 57 56 54 53 52 55 56 55
52 51 52 52 53 53 53 54 53 55 55 56 56 57 56 55 55 55 56 57 57 57 58 57 57 57 57 56 53 53 55 55
51 52 51 52 52 53 53 54 55 56 55 56 56 56 56 56 56 55 55 55 56 56 57 57 57 56 56 56 56 55 55 55
49 50 51 52 53 53 53 55 55 56 56 56 56 56 56 56 56 55 54 54 55 55 56 56 57 57 56 56 56 56 56 56
42 45 48 51 53 53 52 54 55 55 55 55 55 56 57 57 57 56 56 55 54 54 55 55 56 56 55 56 56 56 56 55
39 40 42 43 45 47 47 50 55 55 55 55 55 56 56 56 57 57 57 56 55 54 53 54 54 53 47 46 52 55 55 55
35 37 38 39 40 40 42 42 43 44 44 44 46 50 50 51 54 55 56 56 57 56 55 54 53 48 37 39 41 54 55 55
33 34 36 35 36 36 37 37 37 38 38 38 39 42 42 43 44 46 48 47 45 46 44 47 40 35 35 36 36 47 50 52

GFSFLT1_sfc_dewp_093.txt.gz
Dewpoint
26 29 30 27 31 41 49 59 67 66 66 66 66 65 66 66 66 66 65 65 64 64 64 63 64 62 62 62 61 61 60 57
23 29 33 33 35 40 50 57 66 66 64 64 64 64 63 64 64 64 64 64 63 63 62 63 63 61 61 61 61 60 59 58
20 24 31 36 37 41 51 55 61 64 63 63 63 63 62 63 64 63 64 63 63 62 62 62 61 60 60 60 60 59 59 58
24 24 29 36 39 45 49 53 59 64 64 63 62 62 62 62 62 63 63 63 63 63 62 62 60 60 60 60 60 59 58 58
34 29 29 33 39 48 51 53 59 62 63 60 61 60 59 60 61 62 62 62 62 62 62 61 60 60 60 60 60 59 58 56
38 33 31 30 38 47 53 54 57 61 62 60 61 60 59 59 61 62 62 62 61 62 61 61 60 60 60 60 60 60 59 57
41 37 35 30 35 51 55 56 57 59 60 60 60 60 58 55 60 61 61 61 61 61 61 60 60 60 60 60 60 59 59 59
43 41 34 34 39 53 57 56 56 58 60 60 60 59 58 57 58 60 59 59 59 60 60 60 60 60 60 60 60 60 60 59
46 44 44 44 48 56 56 55 55 57 59 59 58 57 57 57 60 60 59 57 58 59 60 60 60 60 60 60 60 60 60 60
49 48 45 49 54 56 57 56 55 57 58 59 57 57 57 58 59 59 58 57 57 57 58 59 59 59 59 59 58 58 59 59
50 50 45 50 55 55 57 57 56 56 57 57 56 57 57 58 59 58 57 57 57 56 57 57 58 59 59 58 57 58 58 59
47 51 51 51 55 55 56 57 56 56 55 56 57 56 57 58 59 59 57 57 57 56 57 57 57 57 58 58 58 57 56 56
44 46 52 54 54 55 55 57 56 56 55 55 56 56 57 57 57 58 58 56 56 56 56 55 55 54 54 53 53 53 53 54
41 42 45 52 53 54 55 55 55 55 54 55 56 55 56 56 57 58 58 57 57 56 55 55 53 53 53 53 52 52 53 52
38 39 41 43 50 54 55 55 55 54 54 54 54 56 56 56 57 58 58 58 58 58 57 57 56 55 54 53 53 52 52 52
35 37 38 39 41 45 54 55 55 55 55 53 55 55 56 57 57 57 57 58 58 58 58 58 58 57 56 55 54 54 53 51
33 34 35 36 38 40 44 50 54 55 54 54 54 55 55 56 56 57 56 56 56 57 57 57 58 43 37 39 51 55 55 55
32 32 34 35 35 37 38 42 45 45 45 46 48 50 51 51 54 53 53 55 56 52 51 45 41 38 36 38 38 53 55 51
31 31 33 34 34 35 36 36 38 39 39 40 42 43 44 44 44 43 42 41 41 41 40 39 38 35 36 37 37 48 40 37

GFSFLT1_sfc_dewp_096.txt.gz
Dewpoint
28 31 30 31 32 38 52 67 68 67 67 66 66 65 65 66 66 66 65 66 65 65 64 64 64 63 63 62 61 61 61 60
22 33 40 41 43 45 51 62 68 67 66 65 65 64 64 65 66 66 65 65 64 64 63 63 63 62 62 62 61 60 60 61
20 24 37 44 42 45 51 58 67 66 65 65 64 63 64 64 64 64 64 64 64 63 63 62 62 62 61 61 60 59 60 60
27 31 36 41 45 49 50 54 66 66 65 64 63 63 64 64 63 63 63 64 63 63 63 62 62 61 61 61 60 59 58 59
38 38 39 41 45 50 49 52 56 66 64 63 63 62 61 61 61 62 62 63 63 63 62 62 62 61 61 60 61 59 59 57
42 42 41 38 41 52 53 53 54 64 64 63 63 61 61 61 61 61 61 62 62 62 62 62 61 61 61 60 60 59 59 58
43 44 43 39 42 50 54 54 56 63 63 63 63 61 60 59 60 61 61 61 61 61 62 61 61 60 60 60 60 60 59 58
48 44 43 41 42 51 56 54 55 62 62 62 63 61 61 60 60 60 61 60 60 61 61 61 60 60 60 60 60 60 59 58
48 50 50 47 47 55 56 55 55 60 60 61 61 61 60 59 59 61 60 59 59 61 60 60 60 60 60 60 60 59 59 59
47 49 52 49 57 58 58 56 55 58 60 60 60 60 59 59 60 60 59 58 58 59 60 60 60 59 60 60 59 58 58 59
45 47 49 54 56 57 58 59 57 59 59 59 59 58 58 60 59 58 57 58 57 58 58 59 59 59 59 59 59 59 58 59
43 43 46 49 56 55 56 57 58 58 58 58 58 58 58 59 59 58 57 57 57 56 57 57 59 59 59 59 59 58 58 58
40 41 41 42 48 54 55 56 57 58 57 57 58 58 58 59 58 58 57 56 56 57 57 57 56 57 59 58 58 58 57 57
37 38 39 39 42 47 55 56 56 57 56 57 57 57 57 57 58 58 56 56 56 56 56 55 54 54 54 56 56 55 55 55
35 36 36 37 39 40 44 56 56 56 56 56 56 56 56 57 57 58 57 56 56 55 55 55 54 54 54 54 53 53 53 53
33 33 35 35 36 37 40 43 56 57 56 55 56 57 57 57 58 58 58 57 56 56 56 55 54 54 54 53 53 53 53 53
31 31 33 33 34 35 37 39 44 56 53 54 56 56 57 57 57 58 58 58 58 57 57 57 54 41 38 41 51 54 54 54
29 30 31 32 33 34 35 36 40 44 46 47 49 50 50 49 49 48 47 49 47 45 43 41 39 38 37 39 43 54 53 51
28 29 30 31 32 33 34 34 35 37 38 40 42 43 42 42 41 40 40 40 39 39 38 38 37 36 37 38 41 41 38 36

GFSFLT1_sfc_dewp_102.txt.gz
Dewpoint
22 24 24 27 27 33 60 65 67 67 67 67 65 65 65 66 66 66 65 65 64 64 63 63 63 63 63 62 61 61 60 60
23 24 27 27 30 31 51 64 66 67 67 66 65 65 65 65 65 65 65 64 64 63 63 63 63 63 62 62 61 61 60 61
14 17 20 28 29 32 47 62 66 67 66 66 65 65 64 65 65 65 66 65 64 64 63 63 63 63 62 62 61 60 60 61
12 14 17 20 28 32 46 59 65 66 66 66 64 64 63 62 64 65 65 65 65 64 64 63 63 63 61 61 61 60 59 60
29 43 48 48 40 34 44 56 64 65 66 65 64 63 62 63 63 64 64 64 64 64 63 63 63 63 62 61 61 60 59 58
49 49 50 51 51 51 60 61 64 65 65 64 63 63 62 61 62 63 63 64 63 63 63 63 63 63 62 61 61 60 60 58
46 48 48 49 52 55 56 65 65 65 64 64 63 62 61 61 62 62 62 63 63 63 62 62 62 62 62 61 61 60 60 59
43 44 45 46 48 54 50 65 64 64 64 63 62 61 61 61 61 61 61 61 61 62 62 62 62 62 61 61 61 60 60 59
41 42 43 44 45 47 55 60 63 63 62 62 62 62 61 61 60 60 60 60 60 61 61 61 61 61 61 61 61 60 60 59
36 38 40 42 42 44 47 56 58 61 61 61 61 61 61 60 59 60 60 60 59 60 60 60 61 61 61 61 60 60 60 59
34 36 36 39 40 42 45 47 52 58 60 61 61 61 60 59 60 60 59 58 59 59 59 60 60 60 60 60 60 60 59 59
31 32 35 36 38 39 41 43 46 51 58 58 59 59 59 59 59 58 57 57 56 57 58 59 59 59 60 60 60 59 59 59
29 30 32 34 35 36 39 41 41 45 54 57 58 59 59 58 58 57 57 55 56 56 55 57 57 58 59 59 59 59 59 58
28 29 30 31 33 34 35 38 40 43 47 57 58 58 58 58 57 57 56 56 56 56 56 56 56 56 57 58 59 58 58 58
27 28 29 30 32 33 34 36 38 41 46 57 57 58 58 58 57 56 56 56 56 56 56 56 55 55 56 58 58 58 58 58
26 27 28 29 31 32 33 34 37 40 40 44 51 58 58 58 57 56 56 56 56 56 55 55 55 51 46 50 58 58 57 57
25 25 27 28 30 31 32 33 34 36 37 37 40 47 56 56 57 57 55 52 53 53 53 51 47 43 38 40 50 55 56 56
24 25 27 29 29 29 30 32 33 33 34 34 36 38 42 43 45 43 43 42 41 40 40 40 40 39 38 40 42 51 47 49
24 25 26 29 29 28 28 28 30 31 32 32 34 35 35 36 37 36 36 36 35 35 35 36 36 37 37 38 38 39 38 37

GFSFLT1_sfc_dewp_105.txt.gz
Dewpoint
17 22 24 26 27 29 37 62 66 67 67 66 66 65 66 66 66 66 65 66 64 64 63 63 63 62 62 62 61 61 60 60
19 22 25 26 27 29 38 56 66 66 66 66 65 64 65 65 66 66 65 65 64 64 63 63 63 62 62 62 61 61 60 60
16 16 18 18 22 31 38 54 63 66 66 66 65 65 65 65 65 65 65 65 64 64 64 63 63 62 62 62 61 60 60 60
13 13 16 26 27 26 37 51 60 65 66 66 63 62 63 64 64 65 65 65 64 64 64 63 63 63 62 62 61 60 59 61
44 48 50 50 51 52 42 45 59 64 65 65 63 63 62 63 64 64 65 65 64 64 63 63 63 63 62 62 62 61 60 58
44 46 48 48 50 53 54 45 56 62 65 64 64 62 62 62 63 63 64 64 64 64 63 63 63 63 62 62 61 61 61 59
41 43 45 46 47 48 54 58 59 63 65 64 63 62 62 62 62 63 63 63 64 64 63 63 63 62 62 62 62 61 61 60
40 41 42 43 43 44 48 57 63 64 65 64 64 63 62 61 62 62 62 62 62 62 63 62 62 62 62 62 61 61 60 60
37 39 40 40 41 42 44 48 52 64 64 64 64 62 62 61 61 62 61 61 62 62 62 62 62 62 62 62 61 61 61 60
33 35 37 39 40 40 42 44 48 52 63 63 63 61 60 61 61 61 61 60 60 61 62 62 61 62 61 61 61 60 60 60
31 32 34 36 38 39 40 43 44 48 56 62 61 60 60 59 59 59 59 58 59 59 59 60 60 61 61 61 60 60 60 60
28 29 32 33 36 37 39 40 43 45 48 56 60 59 59 59 59 58 59 59 59 59 59 58 59 60 60 60 60 59 59 59
26 28 30 32 33 34 36 39 41 43 46 50 59 59 59 58 58 58 57 57 57 58 57 57 58 58 59 59 59 59 59 58
25 26 28 29 31 33 34 35 39 42 44 50 58 58 57 57 57 57 57 56 56 55 56 56 56 56 56 56 57 58 59 58
25 25 27 29 30 31 32 34 36 39 41 42 46 54 58 57 57 57 56 56 55 55 56 56 55 55 55 55 56 57 57 58
24 25 26 28 28 29 30 32 34 36 38 38 40 46 57 57 57 56 56 56 56 56 56 55 54 51 45 43 48 56 57 57
23 24 25 27 28 28 28 29 31 34 34 35 37 38 40 43 51 55 52 49 48 48 46 47 45 43 37 38 42 53 56 57
23 24 25 28 28 27 26 27 28 30 31 33 34 35 35 35 37 39 40 41 40 39 39 39 39 37 37 39 41 46 45 43
23 24 25 28 27 26 26 25 26 26 27 29 32 33 32 32 32 33 34 35 35 35 35 35 35 35 36 37 37 39 37 37

GFSFLT1_sfc_dewp_108.txt.gz
Dewpoint
16 18 22 25 26 28 32 50 65 66 66 65 65 65 65 65 65 64 65 65 66 65 64 64 63 63 62 61 60 61 61 61
16 17 19 23 26 28 30 32 50 65 65 65 64 63 64 65 65 65 65 66 65 65 64 63 63 62 62 62 61 60 60 61
45 41 22 19 21 25 29 31 33 62 63 64 64 64 65 65 65 65 65 65 65 64 64 63 62 62 62 62 61 60 60 60
45 45 47 49 49 49 43 34 38 58 62 65 65 65 64 64 64 64 65 65 64 64 64 63 63 62 62 62 62 61 59 60
42 43 44 46 46 48 50 53 42 58 64 64 63 62 61 62 63 64 64 65 64 64 64 64 63 63 62 62 62 61 60 59
40 40 41 42 43 44 46 49 52 52 63 63 64 63 62 62 64 63 63 64 64 64 64 64 63 63 63 62 62 61 61 59
37 38 39 40 41 42 43 48 54 50 62 64 64 62 61 62 63 63 63 64 64 64 64 63 63 63 63 62 62 61 61 60
35 35 36 38 39 40 42 44 50 59 62 64 63 62 62 61 62 62 62 62 63 63 63 63 63 63 63 62 62 61 61 60
32 34 35 36 38 40 40 43 46 50 61 63 64 63 62 62 62 62 62 61 62 62 63 62 63 63 62 62 62 61 61 61
31 32 34 34 37 39 41 41 44 47 50 62 64 63 62 61 62 62 62 62 61 61 62 62 62 62 62 62 61 61 61 61
30 31 32 33 35 37 41 41 42 45 48 52 62 61 61 60 60 61 61 61 60 61 61 61 61 61 61 61 61 61 60 60
30 30 32 32 33 35 36 39 40 43 45 49 58 61 60 60 60 60 60 59 59 60 60 60 59 60 60 60 60 60 59 59
29 30 29 30 31 32 34 38 40 41 44 49 58 59 60 59 59 59 58 58 58 58 58 58 58 58 59 59 59 59 59 59
25 25 26 28 28 30 31 33 36 40 42 44 48 52 58 58 58 58 58 58 58 57 57 57 57 57 57 56 56 57 58 58
24 23 25 27 27 28 30 30 33 36 37 40 41 43 51 57 57 57 57 57 56 56 56 55 55 55 55 53 52 53 55 57
22 23 25 26 26 26 26 28 30 33 35 35 37 39 41 45 52 56 56 55 56 56 56 55 53 49 42 43 47 49 52 54
21 22 24 26 25 26 26 27 28 30 32 34 35 36 35 37 38 39 41 41 42 44 45 45 42 41 37 38 40 51 50 48
21 23 25 26 26 26 25 25 28 28 29 31 33 34 33 33 33 33 34 34 35 35 37 38 37 36 36 38 38 44 43 42
21 23 24 26 27 26 25 24 24 26 26 28 30 32 32 32 31 31 31 32 32 32 33 34 34 34 35 36 36 38 37 36

GFSFLT1_sfc_dewp_111.txt.gz
Dewpoint
19 23 24 25 28 35 38 41 50 64 66 67 67 67 66 66 66 65 65 66 65 66 66 66 66 64 64 64 64 64 64 63
23 42 46 43 37 36 34 37 45 55 62 64 64 63 64 65 65 65 65 65 65 66 66 65 65 64 63 63 63 63 62 63
43 45 46 48 49 50 51 49 39 42 57 62 63 63 64 65 65 65 65 65 65 65 65 64 64 64 63 63 62 62 62 62
42 42 43 44 46 47 48 49 52 51 44 58 64 65 66 64 64 65 64 65 65 65 64 64 64 64 63 63 63 62 60 61
37 38 39 41 43 44 45 47 48 51 53 51 62 61 60 61 63 64 65 65 65 64 64 64 64 63 63 63 63 63 62 60
33 34 35 37 39 41 42 44 47 50 54 54 62 62 62 62 64 65 64 64 64 64 64 64 63 64 64 63 63 63 63 61
31 32 33 35 36 38 40 42 44 50 55 55 62 63 62 62 63 64 64 64 64 64 64 64 64 63 64 63 63 63 62 62
30 30 32 34 36 37 39 41 42 46 51 54 62 63 64 63 63 63 63 63 63 63 64 64 63 63 63 64 63 63 62 62
29 30 31 33 35 37 38 41 41 45 49 54 61 62 62 63 64 63 63 63 63 64 64 64 64 64 63 63 63 63 63 62
30 29 30 31 33 34 37 39 41 43 46 50 60 62 63 63 64 65 65 64 64 64 64 63 63 63 63 63 63 62 62 62
29 30 31 31 32 34 36 38 40 42 45 48 52 63 63 63 64 64 64 64 63 63 63 63 63 62 63 62 62 62 62 62
28 29 30 32 32 32 33 34 37 41 43 46 52 61 62 63 62 64 63 63 62 62 62 63 62 62 62 62 62 61 61 61
28 28 29 30 30 31 31 32 34 38 42 45 47 51 61 61 61 61 61 60 62 62 62 61 60 61 61 61 60 60 60 60
26 27 27 28 27 28 29 30 32 35 39 42 43 45 50 59 59 59 59 59 59 59 60 60 59 59 59 59 59 58 59 59
23 23 25 25 25 27 28 28 31 32 36 37 40 40 43 47 55 57 57 58 57 57 58 57 57 55 52 52 53 54 55 55
23 24 25 25 25 25 25 27 29 32 32 34 36 38 38 40 41 43 45 44 44 45 49 47 46 41 38 41 46 50 52 53
22 23 23 24 26 26 25 25 27 28 30 32 33 35 35 35 36 37 38 38 37 37 37 37 37 36 36 37 39 47 51 50
21 22 24 25 26 26 25 26 27 26 28 29 31 32 34 33 33 33 33 33 34 33 34 34 33 33 35 36 37 43 42 41
20 21 22 25 25 26 24 23 24 26 25 27 29 30 30 32 32 31 32 32 31 30 31 31 30 31 34 35 36 37 36 35

GFSFLT1_sfc_dewp_114.txt.gz
Dewpoint
18 23 29 38 41 44 44 40 42 46 58 63 62 64 65 64 64 64 66 68 68 68 65 68 68 67 66 67 66 65 64 64
40 43 44 45 46 47 48 50 52 43 41 54 57 62 63 64 64 65 65 67 68 67 65 66 67 66 66 67 66 66 66 65
39 40 42 44 44 46 48 48 49 50 45 41 55 58 61 62 64 66 66 66 66 67 66 66 66 66 65 66 65 64 64 65
36 38 39 41 42 44 44 46 47 48 51 50 43 56 58 60 64 66 66 65 66 68 66 66 66 66 64 64 65 64 62 63
33 34 36 37 38 41 42 44 45 46 49 50 51 46 53 58 61 64 65 67 66 66 67 66 66 66 64 64 64 64 64 61
31 32 33 34 37 38 40 42 43 45 48 50 52 50 55 56 61 62 64 66 66 66 66 66 65 65 65 64 64 64 64 62
31 32 32 33 35 36 37 39 40 42 45 49 52 55 53 55 57 61 62 65 65 65 65 65 65 65 64 64 64 64 64 63
30 30 30 32 32 34 35 35 37 39 43 46 50 54 56 59 57 60 62 63 63 64 65 64 64 65 65 64 64 64 64 63
29 30 31 31 32 33 35 34 35 37 41 44 48 53 56 58 59 58 61 63 63 64 64 64 64 64 64 64 64 64 64 64
28 28 30 30 30 32 33 34 34 37 40 44 48 53 59 60 61 62 62 64 63 64 64 64 64 64 64 64 63 63 64 64
29 28 30 30 30 31 32 33 33 36 40 44 47 52 58 61 63 63 63 64 64 64 64 64 63 63 64 64 63 63 63 63
31 31 31 32 32 30 31 32 33 35 40 44 47 52 61 62 63 63 64 64 64 64 64 64 63 63 63 63 63 62 62 62
30 30 30 31 30 30 30 31 32 34 38 42 44 46 51 62 62 63 64 63 64 63 63 62 62 62 62 62 61 61 61 61
27 28 27 28 28 29 28 29 32 33 36 40 42 42 44 48 57 60 61 61 61 61 61 61 62 61 61 61 61 61 61 61
26 26 26 27 28 28 27 28 30 32 34 35 38 39 41 43 45 47 48 52 56 53 51 46 44 43 44 48 54 56 57 57
24 25 26 27 27 27 26 27 29 31 31 32 35 37 36 38 39 40 42 42 43 43 40 39 39 37 37 41 47 52 53 54
24 25 25 26 27 28 26 27 28 29 30 31 31 34 34 34 34 36 35 37 36 36 35 35 36 36 37 37 42 49 48 46
23 25 25 27 28 29 28 29 29 28 28 29 30 31 32 33 33 32 32 32 33 33 33 33 33 34 35 37 38 40 38 37
22 23 24 26 26 26 26 25 26 27 27 29 30 30 30 31 31 31 31 31 31 31 31 31 31 32 33 35 35 35 34 33

GFSFLT1_sfc_dewp_117.txt.gz
Dewpoint
34 39 42 42 44 45 46 47 50 51 47 53 57 61 64 66 65 64 67 68 69 69 66 68 68 67 67 67 67 67 65 64
36 39 41 42 44 45 45 47 49 50 49 42 47 59 61 64 66 66 65 66 69 69 67 68 68 67 67 68 67 66 65 66
34 36 38 41 42 43 45 45 46 47 47 48 45 47 55 61 64 65 67 67 68 68 68 66 69 67 66 67 66 66 66 67
33 34 35 37 39 41 41 43 44 46 48 47 48 51 49 58 62 63 65 67 68 69 68 67 67 68 66 66 66 65 64 67
32 33 34 35 36 39 41 41 42 43 46 47 49 47 46 50 60 62 63 66 67 68 69 68 68 67 66 65 65 65 64 62
31 32 32 33 34 36 38 40 40 42 44 46 47 49 50 51 52 62 63 65 66 67 68 68 68 67 67 66 65 65 64 62
30 30 31 31 33 34 36 37 38 40 42 44 45 48 50 51 53 56 61 63 65 68 67 68 67 66 66 66 66 64 64 63
29 28 29 30 31 32 32 34 35 37 39 41 42 44 48 51 52 55 60 62 63 66 66 66 66 66 66 66 65 64 64 63
28 28 28 29 30 31 31 31 33 35 36 38 40 42 45 49 52 55 56 61 63 66 66 65 65 66 65 65 64 64 64 64
28 28 28 28 29 30 31 31 32 34 35 37 38 42 45 48 53 57 58 61 63 65 66 64 64 64 65 64 64 63 64 64
28 28 29 29 31 31 31 30 30 32 34 36 39 42 46 49 55 59 61 61 63 64 65 64 64 64 64 64 64 63 63 63
32 32 30 31 31 30 30 30 30 32 34 37 39 44 46 50 57 61 62 62 62 62 64 64 63 63 63 63 63 62 62 63
31 32 31 31 31 32 30 30 30 33 34 36 41 42 45 47 55 60 62 61 62 62 63 63 63 63 63 62 62 62 62 61
26 30 30 31 30 31 30 30 30 32 33 35 38 39 41 41 44 47 50 58 59 57 59 56 58 60 61 62 62 61 62 62
26 27 29 31 31 31 30 29 30 31 33 33 35 36 37 38 39 40 43 44 43 44 42 42 41 41 44 50 59 60 59 59
26 27 28 29 30 32 32 30 30 31 31 31 33 34 35 35 36 36 37 38 38 40 42 41 40 39 40 42 52 54 55 55
25 26 25 27 29 32 32 31 31 31 30 31 31 32 32 32 32 33 34 34 33 34 35 36 38 38 39 40 45 46 44 43
22 25 26 26 28 29 30 31 32 30 30 31 31 31 31 31 31 31 30 31 32 32 32 32 32 33 36 36 36 37 36 34
21 23 23 25 25 25 26 25 26 28 28 29 31 31 30 31 31 31 30 30 30 30 30 30 30 31 32 33 34 33 32 31

GFSFLT1_sfc_dewp_120.txt.gz
Dewpoint
37 37 39 40 42 46 46 47 50 52 52 54 51 52 65 66 66 65 67 68 67 67 68 67 67 67 67 66 66 67 66 65
34 38 38 39 41 42 43 45 48 48 48 49 50 50 53 64 65 66 66 66 68 67 67 67 67 65 66 66 66 66 65 65
33 35 37 39 39 40 41 42 44 45 45 46 48 50 51 53 62 65 66 66 67 68 67 66 67 65 65 67 66 65 65 66
32 33 35 37 37 38 38 40 41 43 45 44 46 47 49 50 51 57 65 65 66 68 67 66 66 66 65 66 66 65 64 65
31 31 32 33 35 36 37 37 38 39 43 43 45 46 47 50 51 53 61 65 65 66 67 67 66 67 66 66 65 64 64 63
30 30 30 30 32 33 35 36 35 36 39 42 42 44 46 48 50 52 54 59 64 65 65 66 67 66 67 66 65 64 64 62
29 29 29 29 30 31 32 32 32 34 36 38 39 40 42 44 47 50 52 57 61 63 64 65 66 66 65 66 64 64 63 63
28 27 27 28 28 29 30 30 30 31 33 35 36 38 39 41 43 47 50 53 57 60 63 64 66 66 65 66 65 64 64 62
27 27 27 28 28 28 29 30 30 30 32 33 35 36 38 39 41 45 48 52 55 59 61 62 64 65 66 66 65 65 64 63
28 27 28 28 28 29 29 30 30 30 31 33 34 36 37 39 41 44 47 50 54 57 61 61 63 65 65 65 64 64 64 63
29 30 30 30 30 31 32 31 31 31 32 34 35 37 39 40 42 44 46 49 54 57 60 61 61 64 64 64 64 63 63 62
31 31 31 32 32 33 32 31 31 31 32 34 36 39 41 43 45 48 48 50 53 57 57 59 56 62 62 63 63 63 62 62
31 32 31 32 32 32 32 32 31 32 33 34 36 38 39 40 42 45 50 52 55 59 59 59 58 61 62 62 62 62 62 61
29 30 30 30 31 32 32 32 31 32 33 33 34 35 36 37 37 40 41 42 45 45 46 48 49 52 61 63 62 62 62 61
27 28 29 30 31 32 32 31 31 32 32 32 32 33 34 35 36 35 36 38 37 40 43 42 44 44 45 49 61 61 61 61
26 27 28 28 29 31 32 31 31 32 31 31 32 33 32 32 33 34 33 34 34 35 35 38 39 40 43 46 47 46 48 48
24 24 23 25 26 29 30 31 30 31 30 30 32 32 32 31 31 31 32 32 32 33 33 33 33 36 38 40 38 37 37 37
20 22 22 24 24 25 26 26 28 28 29 30 30 31 31 31 32 30 30 30 31 31 31 32 32 33 34 35 36 36 35 34
19 20 20 22 21 21 23 23 24 26 26 27 28 30 29 31 31 31 31 31 29 29 29 30 29 30 32 32 32 31 30 30

GFSFLT1_sfc_dewp_123.txt.gz
Dewpoint
35 36 36 37 37 38 38 39 43 43 44 45 46 48 52 56 63 66 66 66 67 67 68 66 66 66 66 65 65 66 65 64
33 34 34 34 34 35 36 37 39 41 42 43 43 44 46 49 53 55 65 65 66 67 67 66 66 65 66 65 65 65 65 65
31 32 32 32 33 33 34 34 35 36 38 39 41 42 45 47 49 53 54 61 66 66 66 65 67 65 64 65 65 64 64 65
30 29 30 30 30 31 32 32 33 34 35 36 38 41 43 45 47 49 52 55 62 65 65 65 65 66 64 64 65 64 63 64
28 28 28 28 29 29 29 30 30 31 33 33 34 36 39 42 44 46 48 52 55 60 64 65 64 66 66 63 66 65 64 62
27 28 27 27 28 28 28 29 30 30 30 31 32 33 37 39 41 42 44 47 52 56 61 64 66 65 66 65 63 66 64 62
27 27 27 27 27 27 27 28 28 29 30 30 31 32 34 35 37 39 41 44 48 52 56 61 63 65 65 65 65 65 65 63
27 26 26 26 26 27 28 28 28 28 29 29 30 31 32 34 35 38 39 42 45 49 54 57 62 62 64 65 65 64 64 63
28 27 27 28 28 28 29 29 29 29 29 29 30 31 33 34 35 37 39 40 43 46 50 53 58 61 62 63 64 63 61 61
29 28 28 28 29 30 31 31 30 30 31 32 32 33 34 35 36 37 39 41 42 44 48 51 55 59 61 61 62 62 62 61
28 28 28 29 30 31 33 31 30 30 32 34 35 35 37 38 39 39 40 42 44 44 46 48 53 57 60 60 60 61 61 63
27 28 29 30 31 32 33 32 31 31 33 34 35 36 37 37 39 41 42 45 45 47 47 49 52 57 59 58 60 60 61 62
27 28 29 29 30 31 32 31 31 32 33 34 34 34 35 36 36 38 40 42 46 49 50 51 54 53 54 54 55 55 52 61
27 27 27 28 29 30 32 31 30 32 32 33 33 33 33 34 35 35 36 37 38 40 41 41 42 43 45 49 52 54 60 61
26 25 26 27 29 29 30 30 30 31 31 32 32 32 33 33 33 33 34 34 34 34 35 36 36 37 39 44 52 59 59 59
25 25 25 25 25 25 27 28 29 30 29 29 30 32 33 33 32 31 31 32 32 32 32 32 34 34 35 37 41 42 43 44
21 21 20 22 22 22 23 24 27 27 28 27 29 30 31 32 32 31 30 30 30 31 31 31 31 32 34 34 34 34 36 36
19 19 20 22 22 22 22 23 24 23 24 25 25 27 28 29 31 31 29 28 29 28 30 30 30 31 33 33 32 31 32 32
19 20 20 22 22 22 21 22 22 23 20 23 23 23 24 26 27 28 30 28 27 27 27 28 29 31 33 32 32 31 29 29

GFSFLT1_sfc_dewp_129.txt.gz
Dewpoint
28 28 28 28 28 28 29 30 30 31 33 34 35 39 39 41 45 47 50 53 55 58 60 60 62 62 65 66 66 66 65 64
28 28 28 27 27 27 27 28 29 30 31 30 31 32 32 38 37 41 47 50 52 54 57 57 56 62 62 64 65 65 64 64
27 27 27 26 26 27 27 27 28 28 29 29 30 30 32 33 37 40 42 46 47 46 49 52 55 59 62 62 64 63 64 65
26 26 26 26 26 27 28 28 28 29 29 29 29 29 30 31 32 33 36 38 41 46 47 49 53 57 61 60 61 63 61 63
27 26 26 26 27 28 29 29 28 29 30 29 28 28 28 29 30 31 33 36 39 42 44 45 49 53 56 60 61 60 61 61
27 26 26 27 28 28 28 28 29 29 29 29 29 28 29 30 30 31 32 34 36 39 42 45 47 50 54 58 60 59 60 61
27 27 27 27 27 27 27 30 28 28 28 28 28 28 29 30 31 31 32 34 35 37 39 41 46 50 53 57 59 61 61 61
26 26 25 25 26 26 29 29 27 27 27 27 28 28 30 33 33 34 34 35 36 37 38 41 42 44 47 48 50 56 61 62
26 25 25 25 25 26 29 28 28 28 29 30 30 31 34 34 35 36 36 37 37 38 39 39 40 42 44 46 48 50 55 61
25 25 25 25 27 26 29 29 28 29 30 31 32 33 35 35 36 37 37 39 40 41 41 42 41 42 44 46 47 49 54 58
25 25 26 26 27 26 28 28 29 30 29 29 30 33 35 35 35 35 36 37 38 39 42 42 44 44 45 46 46 48 51 55
23 24 25 25 26 26 28 28 27 26 28 28 30 31 33 34 34 34 35 35 35 36 38 40 44 46 47 48 48 48 50 55
23 22 21 23 25 26 26 27 26 26 28 28 29 30 33 32 32 32 33 34 35 35 35 36 37 39 42 46 50 51 53 55
23 22 21 22 24 24 25 25 25 25 27 27 27 27 30 30 30 30 30 31 32 32 33 33 33 35 37 40 43 46 43 43
20 21 22 23 24 23 24 24 24 23 25 25 24 25 27 29 28 28 28 28 29 30 31 31 32 32 34 35 36 38 38 38
20 20 21 22 23 23 23 23 23 22 22 21 22 24 26 25 26 25 25 26 27 28 30 30 31 32 32 32 33 34 34 34
18 18 18 20 21 22 22 23 23 22 21 19 20 20 21 23 23 23 23 23 24 25 27 29 30 31 33 32 31 30 30 31
17 18 19 21 21 21 21 22 23 21 20 19 18 18 17 19 20 20 20 21 22 23 25 27 28 30 32 32 31 29 28 28
17 19 20 21 21 21 21 21 20 20 19 19 18 17 16 16 17 17 18 19 20 21 23 24 26 27 29 30 30 28 27 27